GEFSSE_con_cape1000_120.txt.gz
Probability
16 39 77 81 87 97 94 94 94 90 90 87 81 68 68 61 52 55 42 48 39 32 16 13 6 0 3 3 3 0 0 0 0 0 0 0 0 0 0 0 0 0 3
19 39 71 77 81 87 94 94 90 90 90 90 84 71 65 65 52 39 32 29 19 23 13 13 6 0 3 3 0 0 0 0 0 0 0 0 0 0 0 0 0 0 3
19 42 61 71 74 77 81 90 90 90 90 90 90 77 68 71 58 35 39 32 23 23 19 16 6 0 3 0 0 0 0 0 0 0 0 0 0 0 0 0 0 0 0
23 29 61 65 68 71 71 77 81 77 90 84 81 84 77 74 58 55 35 42 39 32 26 16 13 3 0 0 0 0 3 0 0 0 0 0 0 0 0 0 0 0 0
23 23 55 65 65 68 68 65 74 74 77 77 77 84 81 71 65 68 55 52 42 48 29 16 19 13 6 3 3 3 3 3 0 0 0 0 0 0 0 0 0 0 0
16 23 32 52 58 58 61 58 58 68 71 77 74 71 74 71 65 68 68 65 58 48 39 23 16 19 10 6 6 3 3 0 0 0 0 0 0 0 0 0 0 0 0
13 16 29 42 52 55 55 52 52 55 58 68 65 65 71 77 74 65 81 77 58 45 35 26 13 13 6 3 3 3 3 0 0 0 0 0 0 0 0 0 0 0 0
10 16 23 32 45 45 45 48 52 48 52 55 65 61 61 71 71 74 77 77 65 39 32 26 16 13 6 3 3 3 3 0 0 0 0 0 0 0 0 0 0 0 0
6 10 13 19 23 32 39 39 48 48 45 48 48 55 58 58 61 71 74 81 74 58 48 39 26 16 13 6 6 3 3 0 0 0 0 0 0 0 0 0 0 0 0
3 3 6 10 10 6 10 16 23 23 26 35 39 26 19 16 35 48 45 55 65 61 52 35 23 13 13 6 6 0 0 0 0 0 0 0 0 0 0 0 0 0 0
0 0 3 6 6 6 6 6 6 6 6 6 6 3 3 0 0 6 3 3 16 42 29 19 19 13 3 0 0 0 0 0 0 0 0 0 0 0 0 0 0 0 0
0 0 0 0 3 3 6 0 0 0 0 0 0 0 0 0 0 0 0 0 0 0 0 6 10 10 3 0 0 0 0 0 0 0 0 0 0 0 0 0 0 0 0
0 0 0 0 0 0 0 0 0 0 0 0 0 0 0 0 0 0 0 0 0 0 0 0 0 0 0 0 0 0 0 0 0 0 0 0 0 0 0 0 0 0 0
0 0 0 0 0 0 0 0 0 0 0 0 0 0 0 0 0 0 0 0 0 0 0 0 0 0 0 0 0 0 0 0 0 0 0 0 0 0 3 3 0 0 0
0 0 0 0 0 0 0 0 0 0 0 0 0 0 0 0 0 0 0 0 0 0 0 0 0 0 0 0 0 0 0 0 0 0 0 0 0 0 3 6 3 3 0
0 0 0 0 0 0 0 0 0 0 0 0 0 0 0 0 0 0 0 0 0 0 0 0 0 0 0 0 0 0 0 0 0 0 0 0 0 0 3 3 6 6 3
0 0 0 0 0 0 0 0 0 0 0 0 0 0 0 0 0 0 0 0 0 0 0 0 0 0 0 0 0 0 0 0 0 0 0 0 0 0 0 3 3 6 3
0 0 0 0 0 0 0 0 0 0 0 0 0 0 0 0 0 0 0 0 0 0 0 0 0 0 0 0 0 0 0 0 0 0 0 0 0 0 0 0 3 6 6
0 0 0 0 0 0 0 0 0 0 0 0 0 0 0 0 0 0 0 0 0 0 0 0 0 0 0 0 0 0 0 0 0 0 0 0 0 0 0 0 0 0 0
0 0 0 0 0 0 0 0 0 0 0 0 0 0 0 0 0 0 0 0 0 0 0 0 0 0 0 0 0 0 0 0 0 0 0 0 0 0 0 0 0 0 0
0 0 0 0 0 0 0 0 0 0 0 0 0 0 0 0 0 0 0 0 0 0 0 0 0 0 0 0 0 0 0 0 0 0 0 0 0 0 0 0 0 0 0
0 0 0 0 0 0 0 0 0 0 0 0 0 0 0 0 0 0 0 0 0 0 0 0 0 0 0 0 0 0 0 0 0 0 0 0 0 0 0 0 0 0 0
0 0 0 0 0 0 0 0 0 0 0 0 0 0 0 0 0 0 0 0 0 0 0 0 0 0 0 0 0 0 0 0 0 0 0 0 0 0 0 0 0 0 0
0 0 0 0 0 0 0 0 0 0 0 0 0 0 0 0 0 0 0 0 0 0 0 0 0 0 0 0 0 0 0 0 0 0 0 0 0 0 0 0 0 0 0
0 0 0 0 0 0 0 0 0 0 0 0 0 0 0 0 0 0 0 0 0 0 0 0 0 0 0 0 0 0 0 0 0 0 0 0 0 0 0 0 0 0 0
0 0 0 0 0 0 0 0 0 0 0 0 0 0 0 0 0 0 0 0 0 0 0 0 0 0 0 0 0 0 0 0 0 0 0 0 0 0 0 0 0 0 0

GEFSSE_con_cape1000_126.txt.gz
Probability
3 16 48 65 65 71 71 74 74 81 81 84 74 68 61 55 55 52 42 42 32 19 13 10 3 3 0 3 0 3 3 3 3 3 3 0 6 0 3 0 0 0 6
10 19 42 65 68 65 65 61 65 68 81 81 81 74 71 55 45 39 39 35 35 23 13 6 0 3 3 3 0 0 0 0 0 0 0 0 0 0 0 0 0 0 3
16 23 35 55 65 65 65 65 65 65 65 74 68 74 68 55 45 32 35 35 35 26 10 3 0 3 3 3 0 0 0 0 0 0 0 0 0 0 0 0 0 3 3
19 26 29 55 58 61 61 58 58 55 58 61 58 58 58 55 58 52 42 35 35 35 16 3 10 3 0 0 0 0 0 0 0 0 0 0 0 0 0 0 0 0 3
19 23 35 48 55 58 55 55 58 55 48 52 55 55 55 58 58 55 45 45 48 35 26 10 10 13 3 0 0 0 3 0 0 0 0 0 0 0 0 0 0 0 0
16 23 32 42 45 45 48 52 42 42 45 52 48 52 48 45 58 61 61 65 55 48 32 23 13 13 6 6 0 0 0 0 0 0 0 0 0 0 0 0 0 0 0
16 16 16 35 39 39 35 35 39 45 42 42 45 39 42 45 48 52 61 61 58 42 29 26 19 10 10 6 3 0 3 0 0 0 0 0 0 0 0 0 0 0 0
10 13 13 26 32 32 32 35 35 35 32 35 39 45 42 45 42 42 52 52 48 45 32 32 23 16 10 6 3 3 0 0 0 0 0 0 0 0 0 0 0 0 0
10 6 6 13 13 19 26 19 29 32 32 32 32 35 35 35 35 32 42 42 45 42 39 39 26 10 19 16 6 3 0 0 0 0 0 0 0 0 0 0 0 0 0
3 3 3 3 6 3 3 10 6 10 13 19 19 16 19 16 23 26 26 26 32 29 32 32 26 19 16 13 6 3 0 0 0 0 0 0 0 0 0 0 0 0 0
3 3 3 3 3 3 3 3 3 3 6 6 3 0 0 0 0 3 3 3 16 16 16 13 13 10 3 3 0 0 0 0 0 0 0 0 0 0 0 0 0 0 0
0 0 0 3 3 3 3 3 0 0 0 0 0 0 0 0 0 0 0 0 0 3 3 10 6 0 0 0 0 0 0 0 0 0 0 0 0 0 0 3 3 0 0
0 0 0 0 0 3 0 0 0 0 0 0 0 0 0 0 0 0 0 0 0 0 0 0 0 0 0 0 0 0 0 0 0 0 0 0 0 0 0 0 0 3 0
0 0 0 0 0 0 0 0 0 0 0 0 0 0 0 0 0 0 0 0 0 0 0 0 0 0 0 0 0 0 0 0 0 0 0 0 0 0 0 0 3 0 3
0 0 0 0 0 0 0 0 0 0 0 0 0 0 0 0 0 0 0 0 0 0 0 0 0 0 0 0 0 0 0 0 0 0 0 0 0 0 0 0 0 3 0
0 0 0 0 0 0 0 0 0 0 0 0 0 0 0 0 0 0 0 0 0 0 0 0 0 0 0 0 0 0 0 0 0 0 0 0 0 0 0 0 0 0 3
0 0 0 0 0 0 0 0 0 0 0 0 0 0 0 0 0 0 0 0 0 0 0 0 0 0 0 0 0 0 0 0 0 0 0 0 0 0 0 0 0 0 0
0 0 0 0 0 0 0 0 0 0 0 0 0 0 0 0 0 0 0 0 0 0 0 0 0 0 0 0 0 0 0 0 0 0 0 0 0 0 0 0 0 0 0
0 0 0 0 0 0 0 0 0 0 0 0 0 0 0 0 0 0 0 0 0 0 0 0 0 0 0 0 0 0 0 0 0 0 0 0 0 0 0 0 0 0 0
0 0 0 0 0 0 0 0 0 0 0 0 0 0 0 0 0 0 0 0 0 0 0 0 0 0 0 0 0 0 0 0 0 0 0 0 0 0 0 0 0 0 0
0 0 0 0 0 0 0 0 0 0 0 0 0 0 0 0 0 0 0 0 0 0 0 0 0 0 0 0 0 0 0 0 0 0 0 0 0 0 0 0 0 0 0
0 0 0 0 0 0 0 0 0 0 0 0 0 0 0 0 0 0 0 0 0 0 0 0 0 0 0 0 0 0 0 0 0 0 0 0 0 0 0 0 0 0 0
0 0 0 0 0 0 0 0 0 0 0 0 0 0 0 0 0 0 0 0 0 0 0 0 0 0 0 0 0 0 0 0 0 0 0 0 0 0 0 0 0 0 0
0 0 0 0 0 0 0 0 0 0 0 0 0 0 0 0 0 0 0 0 0 0 0 0 0 0 0 0 0 0 0 0 0 0 0 0 0 0 0 0 0 0 0
0 0 0 0 0 0 0 0 0 0 0 0 0 0 0 0 0 0 0 0 0 0 0 0 0 0 0 0 0 0 0 0 0 0 0 0 0 0 0 0 0 0 0
0 0 0 0 0 0 0 0 0 0 0 0 0 0 0 0 0 0 0 0 0 0 0 0 0 0 0 0 0 0 0 0 0 0 0 0 0 0 0 0 0 0 0

GEFSSE_con_cape1000_132.txt.gz
Probability
29 32 39 52 45 45 55 58 61 61 61 61 55 58 55 52 48 39 39 35 29 23 16 10 3 3 0 3 6 3 0 0 0 0 0 0 0 3 0 0 0 0 0
26 26 42 52 55 52 48 45 52 58 58 58 61 55 55 48 45 32 35 42 29 23 16 10 3 6 3 6 3 3 3 3 0 0 0 0 3 3 0 0 0 0 3
23 26 35 48 52 48 48 52 48 48 52 52 48 45 39 48 45 45 45 35 39 29 19 16 13 10 6 3 6 3 0 0 0 0 0 0 0 0 0 0 0 6 3
23 26 29 45 45 45 45 42 48 42 42 39 35 39 35 35 39 39 45 42 35 23 26 26 19 16 6 3 3 3 0 0 0 0 0 0 0 0 0 0 0 3 6
23 29 32 35 42 39 39 42 42 39 39 35 35 35 35 39 39 39 42 35 32 35 32 26 26 19 16 3 3 0 0 0 0 0 0 0 0 0 0 0 0 3 0
26 23 29 35 35 35 32 35 35 32 32 35 35 35 35 35 35 39 39 35 35 32 26 23 26 23 19 10 6 0 0 3 0 0 0 0 0 0 0 0 0 0 3
26 26 26 35 35 32 32 32 32 32 32 35 35 32 29 32 32 35 39 32 35 23 23 16 16 23 16 10 10 0 0 0 0 0 0 0 0 0 0 3 3 0 3
23 23 23 26 26 32 29 32 32 32 32 32 32 32 29 26 26 26 26 35 26 26 23 16 10 19 19 10 10 6 3 0 0 0 0 0 0 0 0 0 0 3 3
19 19 23 16 13 16 23 23 23 26 32 32 32 32 29 29 26 29 26 23 26 26 26 13 13 6 19 10 13 6 3 0 0 0 0 0 0 0 0 0 0 3 3
16 19 13 13 13 13 16 13 13 13 19 23 23 16 13 16 19 19 13 13 16 23 23 19 16 10 13 10 0 3 0 0 0 0 0 0 0 0 0 0 0 3 6
10 10 10 10 13 13 13 6 10 6 6 6 6 0 0 6 6 6 0 0 6 6 6 16 16 13 3 0 0 0 0 0 0 0 0 0 0 0 0 0 0 3 3
6 6 10 10 13 13 13 13 13 10 6 6 6 3 6 10 6 0 0 0 0 0 6 6 13 3 0 0 0 0 0 0 0 0 0 0 0 0 0 0 3 3 3
6 6 6 10 10 13 13 13 13 13 13 6 6 6 6 6 10 3 0 0 0 0 0 3 10 6 3 3 3 0 0 0 0 0 0 0 0 3 0 0 3 6 3
3 3 3 6 6 6 10 10 10 13 13 10 6 6 6 6 6 6 3 0 0 0 3 3 10 3 3 3 3 3 0 0 0 0 0 0 0 3 3 3 0 3 3
0 0 0 6 6 3 3 6 6 6 3 3 3 6 6 6 6 6 6 6 3 3 0 0 0 0 0 0 0 0 0 0 0 0 0 0 0 0 3 3 3 0 0
0 0 0 0 0 3 3 3 3 3 3 3 3 0 3 3 6 3 3 6 3 3 0 0 0 0 0 6 0 0 0 0 0 0 0 0 0 0 0 3 3 0 0
0 0 0 0 0 0 0 0 3 3 3 3 0 0 0 0 3 3 0 0 0 0 0 0 0 0 0 0 3 0 0 0 0 0 0 0 0 0 0 0 0 0 3
0 0 0 0 0 0 0 0 0 0 0 0 0 3 0 0 0 0 0 0 0 0 0 0 0 0 3 0 0 0 0 0 0 0 0 0 0 0 0 0 0 0 0
0 0 0 0 0 0 0 0 0 0 0 0 0 0 0 0 0 0 0 0 0 0 0 0 0 0 0 0 0 0 0 0 0 0 0 0 0 0 0 0 0 0 0
0 0 0 0 0 0 0 0 0 0 0 0 0 0 0 0 0 0 0 0 0 0 0 0 0 3 0 0 0 0 0 0 0 0 0 0 0 0 0 0 0 0 0
0 0 0 0 0 0 0 0 0 0 0 0 0 0 0 0 0 0 0 0 0 0 0 0 0 0 0 0 3 0 0 0 0 0 0 0 0 0 0 0 0 0 0
0 0 0 0 0 0 0 0 0 0 0 0 0 0 0 0 0 0 0 0 0 0 0 0 0 0 0 0 0 0 0 0 0 0 0 0 0 0 0 0 0 0 0
0 0 0 0 0 0 0 0 0 0 0 0 0 0 0 0 0 0 0 0 0 0 0 0 0 0 0 0 0 0 0 0 0 0 0 0 0 0 0 0 0 0 0
0 0 0 0 0 0 0 0 0 0 0 0 0 0 0 0 0 0 0 0 0 0 0 0 0 0 0 0 0 0 0 0 0 0 0 0 0 0 0 0 0 0 0
0 0 0 0 0 0 0 0 0 0 0 0 0 0 0 0 0 0 0 0 0 0 0 0 0 0 0 0 0 0 0 0 0 0 0 0 0 0 0 0 0 0 0
0 0 0 0 0 0 0 0 0 0 0 0 0 0 0 0 0 0 0 0 0 0 0 0 0 0 0 0 0 0 0 0 0 0 0 0 0 0 0 0 0 0 0

GEFSSE_con_cape1000_138.txt.gz
Probability
35 32 48 55 52 52 48 55 58 58 61 52 48 39 45 35 29 32 39 39 29 32 29 23 26 23 13 10 3 0 0 0 0 0 0 6 6 3 3 3 6 0 6
32 29 45 52 52 48 42 48 55 52 55 52 52 45 42 29 29 32 32 35 29 32 29 39 35 26 13 10 3 3 0 0 3 3 0 0 3 3 3 3 6 0 3
29 23 42 52 45 42 42 42 45 45 48 45 39 35 35 32 26 19 23 19 16 26 39 39 39 32 29 13 13 3 0 6 3 0 0 0 0 0 3 3 3 0 3
26 23 29 48 42 42 39 45 45 42 42 42 39 32 32 32 32 26 23 16 19 16 26 29 32 32 29 23 13 10 6 3 3 0 0 0 0 0 3 3 0 0 3
23 19 32 42 35 39 42 39 42 48 35 35 32 35 32 29 32 39 32 19 23 19 13 16 16 29 29 29 26 16 10 10 0 0 0 0 0 0 3 3 3 3 3
26 26 29 42 32 35 35 39 32 32 32 39 35 35 35 29 29 26 35 29 32 26 23 16 13 16 23 26 23 19 13 10 0 0 0 0 0 3 6 3 3 3 3
23 26 29 39 35 35 35 32 32 32 32 32 29 29 35 32 29 26 26 26 29 29 23 13 13 16 19 23 16 19 19 3 0 0 0 0 0 0 3 3 6 3 3
26 26 29 35 35 32 29 29 32 32 32 32 32 32 29 26 23 23 19 23 19 16 16 19 13 16 6 6 13 19 16 0 0 0 0 0 0 3 0 3 3 0 0
26 26 19 26 26 29 29 26 26 26 26 26 32 32 29 26 26 26 19 19 19 19 16 16 19 19 16 6 6 10 0 0 0 0 0 0 0 3 0 6 3 3 6
19 19 16 16 16 16 19 23 23 26 26 26 26 16 19 19 19 26 16 10 10 13 6 13 16 19 19 10 6 0 0 0 0 0 0 0 0 10 6 6 3 0 3
6 10 16 16 16 19 16 13 10 10 10 6 6 6 3 3 3 0 3 3 3 6 6 6 10 13 6 0 0 0 0 0 0 0 0 0 3 10 6 6 6 3 0
6 10 10 10 13 13 10 6 6 6 6 6 6 3 3 0 0 0 0 0 0 3 3 6 6 6 0 0 0 0 0 0 0 0 0 0 6 6 6 6 6 6 6
3 3 10 10 10 10 6 6 6 6 6 6 6 3 3 0 0 0 0 0 0 0 0 3 0 0 0 0 0 0 0 0 0 0 0 0 6 10 6 6 6 6 6
3 3 6 10 10 10 10 6 6 6 6 6 6 6 0 0 0 0 0 0 0 0 0 0 0 0 0 0 0 0 0 0 0 0 0 0 0 6 6 3 6 6 6
3 3 3 6 6 6 6 0 3 3 3 3 3 0 0 0 0 0 0 0 0 0 0 0 0 0 0 0 0 0 0 0 0 0 0 0 0 3 10 6 6 6 10
0 3 0 3 0 0 0 0 0 0 0 0 0 0 3 0 0 0 0 0 0 0 0 0 0 0 0 0 0 0 0 0 0 0 0 0 0 0 10 6 3 13 13
0 0 0 0 0 0 0 0 0 0 0 0 0 0 0 0 0 0 0 0 0 0 0 0 0 0 0 0 0 0 0 0 0 0 0 0 0 0 0 0 3 6 13
0 0 0 0 0 0 0 0 0 0 0 0 0 0 0 0 0 0 0 0 0 0 0 0 0 0 0 0 0 0 0 0 0 0 0 0 0 0 0 0 0 3 6
0 0 0 0 0 0 0 0 0 0 0 0 0 0 0 0 0 0 0 0 0 0 0 0 0 0 0 0 0 0 0 0 0 0 0 0 0 0 0 0 0 0 0
0 0 0 0 0 0 0 0 0 0 0 0 0 0 0 0 0 0 0 0 0 0 0 0 0 0 0 0 0 0 0 0 0 0 0 0 0 0 0 0 0 0 0
0 0 0 0 0 0 0 0 0 0 0 0 0 0 0 0 0 0 0 0 0 0 0 0 0 0 0 0 0 0 0 0 0 0 0 0 0 0 0 0 0 0 0
0 0 0 0 0 0 0 0 0 0 0 0 0 0 0 0 0 0 0 0 0 0 0 0 0 0 0 0 0 0 0 0 0 0 0 0 0 0 0 0 0 0 0
0 0 0 0 0 0 0 0 0 0 0 0 0 0 0 0 0 0 0 0 0 0 0 0 0 0 0 0 0 0 0 0 0 0 0 0 0 0 0 0 0 0 0
0 0 0 0 0 0 0 0 0 0 0 0 0 0 0 0 0 0 0 0 0 0 0 0 0 0 0 0 0 0 0 0 0 0 0 0 0 0 0 0 0 0 0
0 0 0 0 0 0 0 0 0 0 0 0 0 0 0 0 0 0 0 0 0 0 0 0 0 0 0 0 0 0 0 0 0 0 0 0 0 0 0 0 0 0 0
0 0 0 0 0 0 0 0 0 0 0 0 0 0 0 0 0 0 0 0 0 0 0 0 0 0 0 0 0 0 0 0 0 0 0 0 0 0 0 0 0 0 0

GEFSSE_con_cape1000_144.txt.gz
Probability
19 39 52 52 48 48 55 55 55 48 48 42 39 35 29 23 16 16 16 19 19 26 29 29 32 23 19 13 6 6 6 0 0 3 3 6 3 0 0 6 6 3 6
19 39 48 45 52 52 45 45 45 48 52 45 39 29 26 26 23 16 6 13 19 23 19 26 26 23 23 23 13 10 6 0 0 0 0 0 3 0 0 6 3 0 6
26 39 45 48 48 45 45 48 45 48 45 35 35 32 29 23 16 13 13 16 16 19 19 16 13 10 13 23 19 16 10 6 6 0 0 0 0 3 3 6 3 0 3
23 32 42 48 45 45 48 48 48 48 48 39 32 29 26 23 23 19 16 19 13 10 10 16 10 6 10 10 13 19 16 13 13 0 0 0 0 0 0 3 3 0 0
29 29 42 45 42 39 42 42 45 42 42 35 35 32 29 26 23 13 16 16 6 10 3 3 3 6 10 10 10 6 16 23 10 0 0 0 0 0 0 3 3 3 0
26 29 39 45 42 42 39 35 35 32 32 35 35 32 32 26 29 19 19 19 19 13 3 0 0 3 6 6 6 3 6 13 3 0 0 0 0 0 0 3 6 6 0
26 29 29 42 39 39 35 35 32 32 29 32 35 29 29 23 23 19 23 23 16 16 6 6 3 6 3 3 3 3 6 3 0 0 0 0 0 3 0 3 6 10 3
23 26 29 35 39 35 32 32 32 29 32 32 32 29 29 23 19 16 23 19 13 10 13 13 10 6 6 3 3 0 0 0 0 0 0 0 0 3 3 3 6 10 6
19 19 23 26 26 29 29 26 26 26 26 26 26 29 29 29 26 16 16 19 16 16 6 10 13 13 10 6 3 3 0 0 0 0 0 0 0 0 3 3 10 6 6
19 19 19 19 19 23 26 26 26 26 26 26 23 19 16 16 13 10 10 13 13 13 10 6 3 10 13 10 6 3 0 0 0 0 0 0 0 0 3 10 6 3 3
13 16 16 16 13 16 23 23 19 19 19 16 16 6 3 3 3 3 3 3 3 3 3 6 6 6 0 0 0 0 0 0 0 0 0 0 0 3 3 10 16 10 6
3 3 6 13 10 10 10 13 10 13 6 3 3 3 3 0 0 0 3 3 3 0 0 3 6 3 0 0 0 0 0 0 0 0 0 0 0 3 0 3 13 13 13
3 3 3 3 3 6 6 3 6 6 3 3 3 3 0 0 0 0 0 0 0 0 0 0 0 0 0 0 0 0 0 0 0 0 0 0 0 0 0 3 10 10 10
3 3 3 3 3 0 0 0 3 6 3 3 3 3 0 0 0 0 0 0 0 0 0 0 0 0 0 0 0 0 0 0 0 0 0 0 0 0 3 6 10 0 0
0 3 3 3 0 0 0 0 0 3 3 3 3 3 0 0 0 0 0 0 0 0 0 0 0 0 0 0 0 0 0 0 0 0 0 0 0 0 0 3 6 3 0
0 0 0 0 0 0 0 0 0 0 0 3 3 3 0 0 0 0 0 0 0 0 0 0 0 0 0 0 0 0 0 0 0 0 0 0 0 0 0 3 3 0 0
0 0 0 0 0 0 0 0 0 0 0 0 0 0 0 0 0 0 0 0 0 0 0 0 0 0 0 0 0 0 0 0 0 0 0 0 0 0 0 0 0 3 0
0 0 0 0 0 0 0 0 0 0 0 0 0 0 0 0 0 0 0 0 0 0 0 0 0 0 0 0 0 0 0 0 0 0 0 0 0 0 0 0 0 0 0
0 0 0 0 0 0 0 0 0 0 0 0 0 0 0 0 0 0 0 0 0 0 0 0 0 0 0 0 0 0 0 0 0 0 0 0 0 0 0 0 0 0 0
0 0 0 0 0 0 0 0 0 0 0 0 0 0 0 0 0 0 0 0 0 0 0 0 0 0 0 0 0 0 0 0 0 0 0 0 0 0 0 0 0 0 0
0 0 0 0 0 0 0 0 0 0 0 0 0 0 0 0 0 0 0 0 0 0 0 0 0 0 0 0 0 0 0 0 0 0 0 0 0 0 0 0 0 0 0
0 0 0 0 0 0 0 0 0 0 0 0 0 0 0 0 0 0 0 0 0 0 0 0 0 0 0 0 0 0 0 0 0 0 0 0 0 0 0 0 0 0 0
0 0 0 0 0 0 0 0 0 0 0 0 0 0 0 0 0 0 0 0 0 0 0 0 0 0 0 0 0 0 0 0 0 0 0 0 0 0 0 0 0 0 0
0 0 0 0 0 0 0 0 0 0 0 0 0 0 0 0 0 0 0 0 0 0 0 0 0 0 0 0 0 0 0 0 0 0 0 0 0 0 0 0 0 0 0
0 0 0 0 0 0 0 0 0 0 0 0 0 0 0 0 0 0 0 0 0 0 0 0 0 0 0 0 0 0 0 0 0 0 0 0 0 0 0 0 0 0 0
0 0 0 0 0 0 0 0 0 0 0 0 0 0 0 0 0 0 0 0 0 0 0 0 0 0 0 0 0 0 0 0 0 0 0 0 0 0 0 0 0 0 0

GEFSSE_con_cape1000_150.txt.gz
Probability
6 13 45 45 48 48 48 48 42 39 32 26 26 26 26 16 13 13 13 13 10 13 13 13 13 16 16 10 10 3 6 6 6 0 6 3 0 0 0 3 6 0 6
10 29 45 48 45 45 45 45 42 39 35 29 23 19 23 23 16 13 13 13 16 13 3 10 6 6 3 3 3 6 6 6 3 0 0 0 3 0 3 3 3 0 3
19 32 35 48 52 48 48 48 45 39 35 32 29 26 19 16 19 19 13 13 10 6 0 0 0 3 6 6 3 3 0 3 10 3 0 0 0 0 3 3 0 0 3
26 32 35 42 42 42 42 35 39 35 32 32 29 26 16 16 19 26 16 16 10 6 3 0 0 0 0 3 6 3 3 3 3 0 0 0 0 0 3 3 0 0 0
26 35 39 39 35 35 39 39 39 39 35 35 29 23 23 23 19 16 16 13 13 10 6 3 3 0 0 0 0 3 0 3 3 0 0 0 0 0 0 0 0 0 0
23 29 35 35 35 35 35 39 39 39 32 32 29 32 23 19 19 13 13 10 6 3 0 3 3 3 3 3 0 0 0 3 0 0 0 0 0 0 0 3 0 0 0
26 29 32 35 35 32 32 35 35 32 32 26 26 26 23 19 16 16 16 10 0 0 0 0 0 0 3 3 3 3 0 0 0 0 0 0 0 0 0 3 0 0 3
29 29 29 35 35 35 32 32 32 29 26 26 23 23 23 16 16 6 13 10 6 3 3 0 0 3 6 0 0 0 3 0 0 0 0 0 0 0 3 6 6 3 6
23 26 26 26 26 26 26 26 23 26 26 26 26 23 23 23 13 13 6 6 6 6 3 6 3 3 3 6 3 3 0 0 0 0 0 0 0 0 0 0 3 6 10
19 23 23 23 23 23 23 23 23 23 26 26 23 19 16 13 13 10 10 6 6 6 3 3 3 3 3 3 3 0 0 0 0 0 0 0 0 0 3 3 0 3 0
16 16 16 16 16 16 13 13 13 16 16 16 13 10 10 6 3 3 0 3 6 3 3 0 0 0 0 0 0 0 0 0 0 0 0 0 0 3 6 6 3 0 0
10 10 10 10 13 13 13 13 13 13 13 10 10 10 3 0 0 0 0 0 0 0 0 0 0 0 0 0 0 0 0 0 0 0 0 0 0 3 3 6 6 6 6
6 6 6 6 10 10 10 10 10 10 3 3 6 3 3 0 0 0 0 0 0 0 0 0 0 0 0 0 0 0 0 0 0 0 0 0 0 0 3 3 3 6 3
3 6 6 6 6 3 3 3 6 6 3 0 0 3 3 0 0 0 0 0 0 0 0 0 0 0 0 0 0 0 0 0 0 0 0 0 0 0 3 3 0 0 0
3 3 3 6 0 3 3 3 3 3 0 0 0 0 0 0 0 0 0 0 0 0 0 0 0 0 0 0 0 0 0 0 0 0 0 0 0 0 0 3 3 3 3
0 0 0 0 0 0 3 3 0 0 0 0 0 0 0 0 0 0 0 0 0 0 0 0 0 0 0 0 0 0 0 0 0 0 0 0 0 0 0 0 0 0 0
0 0 0 0 0 0 0 0 0 0 0 0 0 0 0 0 0 0 0 0 0 0 0 0 0 0 0 0 0 0 0 0 0 0 0 0 0 0 0 0 0 0 0
0 0 0 0 0 0 0 0 0 0 0 0 0 0 0 0 0 0 0 0 0 0 0 0 0 0 0 0 0 0 0 0 0 0 0 0 0 0 0 0 0 0 0
0 0 0 0 0 0 0 0 0 0 0 0 0 0 0 0 0 0 0 0 0 0 0 0 0 0 0 0 0 0 0 0 0 0 0 0 0 0 0 0 0 0 0
0 0 0 0 0 0 0 0 0 0 0 0 0 0 0 0 0 0 0 0 0 0 0 0 0 0 0 0 0 0 0 0 0 0 0 0 0 0 0 0 0 0 0
0 0 0 0 0 0 0 0 0 0 0 0 0 0 0 0 0 0 0 0 0 0 0 0 0 0 0 0 0 0 0 0 0 0 0 0 0 0 0 0 0 0 0
0 0 0 0 0 0 0 0 0 0 0 0 0 0 0 0 0 0 0 0 0 0 0 0 0 0 0 0 0 0 0 0 0 0 0 0 0 0 0 0 0 0 0
0 0 0 0 0 0 0 0 0 0 0 0 0 0 0 0 0 0 0 0 0 0 0 0 0 0 0 0 0 0 0 0 0 0 0 0 0 0 0 0 0 0 0
0 0 0 0 0 0 0 0 0 0 0 0 0 0 0 0 0 0 0 0 0 0 0 0 0 0 0 0 0 0 0 0 0 0 0 0 0 0 0 0 0 0 0
0 0 0 0 0 0 0 0 0 0 0 0 0 0 0 0 0 0 0 0 0 0 0 0 0 0 0 0 0 0 0 0 0 0 0 0 0 0 0 0 0 0 0
0 0 0 0 0 0 0 0 0 0 0 0 0 0 0 0 0 0 0 0 0 0 0 0 0 0 0 0 0 0 0 0 0 0 0 0 0 0 0 0 0 0 0

GEFSSE_con_cape1000_156.txt.gz
Probability
23 26 35 48 48 48 42 45 39 32 23 26 23 19 16 16 19 19 16 13 13 10 10 13 10 3 13 10 10 0 6 3 0 0 3 3 0 0 0 0 0 0 0
19 35 45 42 52 52 48 45 39 32 32 32 23 19 23 23 23 19 16 13 10 10 10 10 3 6 6 3 3 3 3 0 0 6 0 0 3 0 3 3 0 0 0
19 35 39 45 45 48 52 35 29 26 26 26 23 26 26 26 23 23 23 16 16 6 0 0 0 0 0 3 0 3 0 3 3 6 0 0 0 0 0 0 0 0 3
23 32 32 45 42 42 39 32 29 29 26 26 26 26 23 23 19 23 16 10 6 0 0 0 0 3 3 0 0 0 0 3 3 0 0 0 0 0 0 3 0 0 0
26 35 39 39 39 35 35 29 32 29 29 32 29 26 26 23 23 23 16 10 6 6 3 0 0 3 3 0 0 0 0 0 3 0 0 0 0 0 0 3 0 0 0
26 29 39 39 35 35 35 35 35 35 32 29 29 26 26 26 19 16 13 13 6 3 0 0 0 0 0 0 0 0 0 0 0 0 0 0 0 0 0 3 6 3 0
23 29 32 35 35 35 35 32 32 32 32 26 26 26 26 23 23 16 13 6 3 0 0 0 0 0 0 0 0 0 0 0 0 0 3 0 0 0 0 6 3 3 0
23 26 32 35 35 35 32 32 32 32 26 29 26 26 19 23 16 16 16 10 0 0 0 0 0 0 0 0 0 0 0 0 0 0 0 3 0 0 0 3 6 3 3
23 26 26 32 29 29 29 29 29 23 23 23 26 23 16 16 13 13 10 3 0 0 0 0 0 0 0 0 0 3 0 0 0 0 0 0 0 0 3 3 3 3 3
23 23 23 23 26 26 26 23 23 23 23 23 16 13 10 10 13 10 3 6 3 0 0 0 0 0 0 0 0 0 0 0 0 0 0 0 0 0 3 3 3 3 3
23 19 23 23 23 26 23 19 19 16 16 13 10 3 3 6 3 0 0 0 6 6 3 0 0 0 0 0 0 0 0 0 0 0 0 0 0 0 3 0 0 6 6
13 16 19 23 23 23 13 19 19 16 16 13 10 6 6 3 3 3 0 0 3 3 0 0 0 0 0 0 0 0 0 0 0 0 0 0 0 0 0 3 3 3 6
13 13 13 13 13 16 13 19 16 13 13 13 10 10 6 6 6 3 0 0 0 0 0 0 0 0 0 0 0 0 0 0 0 0 0 0 0 0 0 0 3 3 3
10 13 13 13 13 13 13 16 16 13 13 13 10 10 6 6 6 6 3 3 0 0 0 0 0 0 0 0 0 0 0 0 0 0 0 0 0 0 0 0 0 0 0
10 13 13 10 10 10 10 10 10 10 13 13 10 10 6 10 6 6 3 3 3 0 0 0 0 0 0 0 0 0 0 0 0 0 0 0 0 0 0 0 0 0 0
6 3 3 6 6 6 6 6 3 3 13 6 10 10 10 10 10 6 3 6 0 0 0 0 0 0 0 0 0 0 0 0 0 0 0 0 0 0 0 0 0 0 0
0 0 0 0 0 3 0 0 0 0 3 3 3 0 0 3 3 6 3 3 3 0 0 0 0 0 0 0 0 0 0 0 0 0 0 0 0 0 0 0 0 0 0
0 0 0 0 0 0 0 0 0 0 0 0 0 0 0 0 0 0 0 3 0 0 0 0 0 0 0 0 0 0 0 0 0 0 0 0 0 0 0 0 0 0 0
0 0 0 0 0 0 0 0 0 0 0 0 0 0 0 0 0 0 0 0 0 0 0 0 0 0 0 0 0 0 0 0 0 0 0 0 0 0 0 0 0 0 0
0 0 0 0 0 0 0 0 0 0 0 0 0 0 0 0 0 0 0 0 0 0 0 0 0 0 0 0 0 0 0 0 0 0 0 0 0 0 0 0 0 0 0
0 0 0 0 0 0 0 0 0 0 0 0 0 0 0 0 0 0 0 0 0 0 0 0 0 0 0 0 0 0 0 0 0 0 0 0 0 0 0 0 0 0 0
0 0 0 0 0 0 0 0 0 0 0 0 0 0 0 0 0 0 0 0 0 0 0 0 0 0 0 0 0 0 0 0 0 0 0 0 0 0 0 0 0 0 0
0 0 0 0 0 0 0 0 0 0 0 0 0 0 0 0 0 0 0 0 0 0 0 0 0 0 0 0 0 0 0 0 0 0 0 0 0 0 0 0 0 0 0
0 0 0 0 0 0 0 0 0 0 0 0 0 0 0 0 0 0 0 0 0 0 0 0 0 0 0 0 0 0 0 0 0 0 0 0 0 0 0 0 0 0 0
0 0 0 0 0 0 0 0 0 0 0 0 0 0 0 0 0 0 0 0 0 0 0 0 0 0 0 0 0 0 0 0 0 0 0 0 0 0 0 0 0 0 0
0 0 0 0 0 0 0 0 0 0 0 0 0 0 0 0 0 0 0 0 0 0 0 0 0 0 0 0 0 0 0 0 0 0 0 0 0 0 0 0 0 0 0

GEFSSE_con_cape1000_162.txt.gz
Probability
19 29 52 48 48 42 42 42 39 35 29 26 16 16 19 23 19 19 13 13 10 10 10 13 16 10 10 10 10 6 3 3 3 6 6 3 3 0 0 0 0 0 6
19 26 55 48 48 48 48 45 35 32 29 26 19 23 19 19 19 19 16 16 10 10 10 13 10 3 3 6 3 0 3 3 3 3 0 3 3 3 0 3 0 0 3
19 23 48 48 45 42 39 42 39 32 32 29 23 23 19 19 19 19 16 16 13 6 6 6 3 3 0 3 0 0 0 3 3 3 0 0 0 3 0 3 0 0 0
13 23 39 45 42 42 35 32 35 29 29 29 26 23 19 19 19 19 19 16 13 6 3 3 3 0 3 0 0 0 0 0 0 3 0 0 0 3 3 3 0 3 0
16 19 35 45 42 35 35 32 32 26 29 29 26 26 26 26 23 19 16 10 10 10 6 3 3 3 0 0 0 0 0 0 0 0 0 0 0 3 3 3 3 0 0
19 26 32 42 35 35 35 32 29 23 23 32 26 26 23 23 26 19 13 13 13 6 3 3 3 3 0 0 0 0 0 0 0 0 0 0 0 0 3 3 3 3 3
16 29 29 42 35 35 35 32 32 32 29 29 32 26 26 26 23 16 13 13 10 3 3 3 3 0 0 0 0 0 0 0 0 0 0 0 0 0 0 3 3 3 3
23 26 29 35 35 35 35 32 32 32 26 26 23 26 26 26 16 16 6 10 3 3 3 3 3 3 0 0 0 0 0 0 0 0 0 0 0 0 0 0 3 3 6
23 23 29 29 29 32 32 29 29 29 29 29 23 23 23 16 13 13 10 10 3 3 3 3 3 0 0 0 0 0 0 0 0 0 0 0 0 0 0 0 0 3 6
23 26 23 29 19 19 29 29 29 26 23 23 19 6 6 10 10 13 6 6 3 3 3 3 0 0 0 0 0 0 0 0 0 0 0 0 0 0 0 0 0 0 0
16 19 23 23 19 13 13 19 16 16 10 6 6 0 0 0 3 0 0 0 3 3 3 0 0 0 0 0 0 0 0 0 0 0 0 0 0 0 0 0 3 3 3
6 16 16 23 16 16 13 13 13 10 6 3 3 3 0 0 0 0 0 0 0 0 0 0 0 0 0 0 0 0 0 0 0 0 0 0 0 0 0 0 0 3 3
6 10 10 19 16 10 6 6 6 3 3 3 3 3 0 0 0 0 0 0 0 0 0 0 0 0 0 0 0 0 0 0 0 0 0 0 0 0 0 0 0 0 3
3 6 10 10 10 6 6 6 6 3 3 3 0 3 3 0 0 0 0 0 0 0 0 0 0 0 0 0 0 0 0 0 0 0 0 0 0 0 0 0 0 0 0
3 3 3 3 3 6 6 6 6 6 3 3 3 3 3 3 0 0 0 0 0 0 0 0 0 0 0 0 0 0 0 0 0 0 0 0 0 0 0 0 0 0 0
0 0 0 3 3 3 3 6 3 3 3 3 0 3 3 0 3 3 0 0 0 0 0 0 0 0 0 0 0 0 0 0 0 0 0 0 0 0 0 0 0 0 0
0 0 0 0 0 0 0 0 0 0 0 0 0 0 0 0 0 0 0 0 0 0 0 0 0 0 0 0 0 0 0 0 0 0 0 0 0 0 0 0 0 0 0
0 0 0 0 0 0 0 0 0 0 0 0 0 0 0 0 0 0 0 0 0 0 0 0 0 0 0 0 0 0 0 0 0 0 0 0 0 0 0 0 0 0 0
0 0 0 0 0 0 0 0 0 0 0 0 0 0 0 0 0 0 0 0 0 0 0 0 0 0 0 0 0 0 0 0 0 0 0 0 0 0 0 0 0 0 0
0 0 0 0 0 0 0 0 0 0 0 0 0 0 0 0 0 0 0 0 0 0 0 0 0 0 0 0 0 0 0 0 0 0 0 0 0 0 0 0 0 0 0
0 0 0 0 0 0 0 0 0 0 0 0 0 0 0 0 0 0 0 0 0 0 0 0 0 0 0 0 0 0 0 0 0 0 0 0 0 0 0 0 0 0 0
0 0 0 0 0 0 0 0 0 0 0 0 0 0 0 0 0 0 0 0 0 0 0 0 0 0 0 0 0 0 0 0 0 0 0 0 0 0 0 0 0 0 0
0 0 0 0 0 0 0 0 0 0 0 0 0 0 0 0 0 0 0 0 0 0 0 0 0 0 0 0 0 0 0 0 0 0 0 0 0 0 0 0 0 0 0
0 0 0 0 0 0 0 0 0 0 0 0 0 0 0 0 0 0 0 0 0 0 0 0 0 0 0 0 0 0 0 0 0 0 0 0 0 0 0 0 0 0 0
0 0 0 0 0 0 0 0 0 0 0 0 0 0 0 0 0 0 0 0 0 0 0 0 0 0 0 0 0 0 0 0 0 0 0 0 0 0 0 0 0 0 0
0 0 0 0 0 0 0 0 0 0 0 0 0 0 0 0 0 0 0 0 0 0 0 0 0 0 0 0 0 0 0 0 0 0 0 0 0 0 0 0 0 0 0

GEFSSE_con_cape1000_168.txt.gz
Probability
3 23 55 45 45 45 45 39 29 26 19 19 19 19 19 16 16 16 16 16 10 10 10 13 10 10 13 13 10 3 3 6 10 3 6 3 0 0 0 0 0 0 3
13 29 52 42 45 45 42 39 26 26 23 16 23 19 19 19 16 16 16 13 13 13 10 6 10 6 6 6 0 0 0 0 0 0 0 0 0 0 0 0 0 0 0
13 32 45 52 42 45 39 35 26 26 29 26 23 19 19 19 16 16 19 16 10 10 3 6 6 6 6 0 0 0 0 0 0 0 0 0 0 0 0 10 3 0 0
16 29 35 45 39 35 39 39 29 29 29 32 23 19 19 23 19 19 16 16 3 6 3 6 6 3 3 0 0 0 0 0 0 0 0 0 0 0 0 3 3 0 0
13 19 32 42 39 39 39 32 29 29 26 32 26 29 26 19 16 16 16 10 10 10 3 3 3 3 0 0 0 0 0 0 0 0 0 0 0 0 0 3 0 3 0
16 23 29 39 35 42 39 35 29 26 26 23 26 29 29 23 19 16 10 10 10 6 3 0 3 3 0 0 0 0 0 0 0 0 0 0 0 0 0 0 0 0 3
23 26 32 35 32 32 35 35 29 26 26 26 26 26 23 23 16 10 10 10 6 6 3 3 3 0 0 0 0 0 0 0 0 0 0 0 0 0 0 0 0 0 0
19 23 26 29 32 29 35 35 35 26 26 26 23 23 19 23 16 10 10 6 6 3 3 3 3 0 0 0 0 0 0 0 0 0 0 0 0 0 0 0 0 0 0
16 19 23 26 26 29 32 35 32 29 23 23 26 19 19 23 19 13 10 6 6 3 3 3 3 0 0 0 0 0 0 0 0 0 0 0 0 0 0 0 0 0 0
13 16 19 19 19 23 26 26 29 26 26 23 23 16 13 10 13 13 10 10 10 3 3 3 3 3 0 0 0 0 0 0 0 0 0 0 0 0 0 0 3 3 3
13 16 16 13 13 16 13 16 19 19 16 19 10 6 0 0 0 3 0 0 3 3 3 3 3 0 0 0 0 0 0 0 0 0 0 0 0 0 0 0 3 3 3
10 6 10 6 10 10 10 10 3 3 3 3 3 3 0 0 0 0 0 0 0 3 3 3 3 0 0 0 0 0 0 0 0 0 0 0 0 0 0 0 0 3 3
3 0 0 3 0 6 3 0 0 0 0 3 3 3 0 0 0 0 0 0 0 0 0 3 0 0 0 0 0 0 0 0 0 0 0 0 0 0 0 0 0 0 3
0 0 0 0 0 0 0 0 0 0 0 0 3 0 0 0 0 0 0 0 0 0 0 0 0 0 0 0 0 0 0 0 0 0 0 0 0 0 0 0 0 0 0
0 0 0 0 0 0 0 0 0 0 0 0 0 0 0 0 0 0 0 0 0 0 0 0 0 0 0 0 0 0 0 0 0 0 0 0 0 0 0 0 0 0 0
0 0 0 0 0 0 0 0 0 3 0 0 0 0 0 0 0 0 0 0 0 0 0 0 0 0 0 0 0 0 0 0 0 0 0 0 0 0 0 0 0 0 0
0 0 0 0 0 0 0 0 0 0 0 0 0 0 0 0 0 0 0 0 0 0 0 0 0 0 0 0 0 0 0 0 0 0 0 0 0 0 0 0 0 0 0
0 0 0 0 0 0 0 0 0 0 0 0 0 0 0 0 0 0 0 0 0 0 0 0 0 0 0 0 0 0 0 0 0 0 0 0 0 0 0 0 0 0 0
0 0 0 0 0 0 0 0 0 0 0 0 0 0 0 0 0 0 0 0 0 0 0 0 0 0 0 0 0 0 0 0 0 0 0 0 0 0 0 0 0 0 0
0 0 0 0 0 0 0 0 0 0 0 0 0 0 0 0 0 0 0 0 0 0 0 0 0 0 0 0 0 0 0 0 0 0 0 0 0 0 0 0 0 0 0
0 0 0 0 0 0 0 0 0 0 0 0 0 0 0 0 0 0 0 0 0 0 0 0 0 0 0 0 0 0 0 0 0 0 0 0 0 0 0 0 0 0 0
0 0 0 0 0 0 0 0 0 0 0 0 0 0 0 0 0 0 0 0 0 0 0 0 0 0 0 0 0 0 0 0 0 0 0 0 0 0 0 0 0 0 0
0 0 0 0 0 0 0 0 0 0 0 0 0 0 0 0 0 0 0 0 0 0 0 0 0 0 0 0 0 0 0 0 0 0 0 0 0 0 0 0 0 0 0
0 0 0 0 0 0 0 0 0 0 0 0 0 0 0 0 0 0 0 0 0 0 0 0 0 0 0 0 0 0 0 0 0 0 0 0 0 0 0 0 0 0 0
0 0 0 0 0 0 0 0 0 0 0 0 0 0 0 0 0 0 0 0 0 0 0 0 0 0 0 0 0 0 0 0 0 0 0 0 0 0 0 0 0 0 0
0 0 0 0 0 0 0 0 0 0 0 0 0 0 0 0 0 0 0 0 0 0 0 0 0 0 0 0 0 0 0 0 0 0 0 0 0 0 0 0 0 0 0

GEFSSE_con_cape1000_174.txt.gz
Probability
0 13 39 42 35 32 23 29 23 23 26 26 23 16 19 16 16 16 16 16 13 16 16 16 16 16 16 13 13 13 10 6 6 6 6 10 10 3 3 3 0 0 3
0 13 39 42 39 29 23 23 26 23 26 29 23 16 19 19 13 13 13 10 10 10 13 13 16 16 16 10 6 6 6 3 0 0 0 0 0 3 3 3 6 0 3
6 13 35 42 42 32 29 19 19 19 26 26 26 19 19 23 19 13 13 10 10 6 10 13 16 13 10 3 3 3 0 0 0 0 0 0 0 0 0 0 3 3 3
10 13 23 42 39 39 26 26 26 19 26 26 29 23 23 23 19 23 13 10 6 6 6 6 6 6 0 0 0 0 0 0 0 0 0 0 0 0 0 0 0 0 0
13 19 23 39 39 29 29 32 26 26 29 26 26 26 23 16 16 16 16 10 10 6 10 6 6 0 0 0 0 0 0 0 0 0 0 0 0 0 0 3 3 0 0
19 19 26 35 29 29 26 29 26 29 29 29 23 26 23 19 19 19 13 10 10 10 6 6 3 0 0 0 0 0 0 0 0 0 0 0 0 0 3 0 0 0 3
16 16 23 35 29 29 29 26 26 29 29 32 29 26 26 23 19 16 10 10 10 10 3 0 0 0 0 0 0 0 0 0 0 0 0 0 0 0 0 0 0 0 0
13 19 26 35 29 29 23 26 29 29 29 29 29 29 26 19 13 10 10 10 10 6 0 0 3 3 0 0 0 0 0 0 0 0 0 0 0 0 0 0 0 0 0
10 13 19 16 19 26 23 26 26 29 26 29 29 26 23 23 16 6 10 10 10 6 3 3 3 0 0 0 0 0 0 0 0 0 0 0 0 0 0 0 0 0 0
6 6 10 10 13 13 16 16 19 26 23 23 19 23 13 10 3 3 6 13 13 3 3 3 3 0 0 0 0 0 0 0 0 0 0 0 0 0 0 0 0 0 0
6 3 3 6 3 3 3 6 10 10 13 13 16 6 3 3 3 0 0 0 0 3 3 3 3 0 0 0 0 0 0 0 0 0 0 0 0 0 0 0 0 0 3
6 3 0 3 3 0 0 0 0 0 0 3 0 3 0 0 0 0 0 0 0 0 3 3 3 0 0 0 0 0 0 0 0 0 0 0 0 0 0 0 0 0 3
3 3 0 0 0 0 0 0 0 0 0 0 0 0 0 0 0 0 0 0 0 0 0 3 0 0 0 0 0 0 0 0 0 0 0 0 0 0 0 0 0 0 0
3 0 0 0 0 0 0 0 0 0 0 0 0 0 0 0 0 0 0 0 0 0 0 0 0 0 0 0 0 0 0 0 0 0 0 0 0 0 0 0 0 0 0
3 0 0 0 0 0 0 0 0 0 0 0 0 3 0 0 0 0 0 0 0 0 0 0 0 0 0 0 0 0 0 0 0 0 0 0 0 0 0 0 0 0 0
3 0 0 0 0 0 0 0 0 0 0 0 0 0 0 0 0 0 0 0 0 0 0 0 0 0 0 0 0 0 0 0 0 0 0 0 0 0 0 0 0 0 0
0 0 0 0 0 0 0 0 0 0 0 0 0 0 0 0 0 0 0 0 0 0 0 0 0 0 0 0 0 0 0 0 0 0 0 0 0 0 0 0 0 0 0
0 0 0 0 0 0 0 0 0 0 0 0 0 0 0 0 0 0 0 0 0 0 0 0 0 0 0 0 0 0 0 0 0 0 0 0 0 0 0 0 0 0 0
0 0 0 0 0 0 0 0 0 0 0 0 0 0 0 0 0 0 0 0 0 0 0 0 0 0 0 0 0 0 0 0 0 0 0 0 0 0 0 0 0 0 0
0 0 0 0 0 0 0 0 0 0 0 0 0 0 0 0 0 0 0 0 0 0 0 0 0 0 0 0 0 0 0 0 0 0 0 0 0 0 0 0 0 0 0
0 0 0 0 0 0 0 0 0 0 0 0 0 0 0 0 0 0 0 0 0 0 0 0 0 0 0 0 0 0 0 0 0 0 0 0 0 0 0 0 0 0 0
0 0 0 0 0 0 0 0 0 0 0 0 0 0 0 0 0 0 0 0 0 0 0 0 0 0 0 0 0 0 0 0 0 0 0 0 0 0 0 0 0 0 0
0 0 0 0 0 0 0 0 0 0 0 0 0 0 0 0 0 0 0 0 0 0 0 0 0 0 0 0 0 0 0 0 0 0 0 0 0 0 0 0 0 0 0
0 0 0 0 0 0 0 0 0 0 0 0 0 0 0 0 0 0 0 0 0 0 0 0 0 0 0 0 0 0 0 0 0 0 0 0 0 0 0 0 0 0 0
0 0 0 0 0 0 0 0 0 0 0 0 0 0 0 0 0 0 0 0 0 0 0 0 0 0 0 0 0 0 0 0 0 0 0 0 0 0 0 0 0 0 0
0 0 0 0 0 0 0 0 0 0 0 0 0 0 0 0 0 0 0 0 0 0 0 0 0 0 0 0 0 0 0 0 0 0 0 0 0 0 0 0 0 0 0

GEFSSE_con_cape1000_180.txt.gz
Probability
16 29 35 29 35 35 32 29 35 35 35 39 35 35 26 19 19 19 19 19 23 23 26 23 19 13 13 13 13 13 13 10 10 13 13 10 6 3 3 3 3 3 3
13 26 32 32 32 35 32 29 32 32 39 39 35 35 23 16 16 13 19 23 23 26 29 19 16 16 13 13 13 10 6 6 3 0 3 6 3 6 6 3 3 3 3
10 23 29 39 35 32 32 35 35 35 32 32 32 26 26 19 19 16 16 16 19 19 23 16 16 16 16 10 10 6 3 0 0 0 0 0 3 3 6 3 3 6 3
10 23 23 39 35 32 35 29 32 32 32 29 29 26 26 26 23 19 16 19 16 16 16 16 16 13 13 6 6 6 0 0 0 0 0 0 0 0 3 3 3 3 6
19 23 29 39 35 32 23 26 26 26 32 29 26 26 26 29 23 23 16 13 16 19 16 16 13 13 6 6 6 0 0 0 0 0 0 0 3 6 6 3 3 3 3
23 26 26 39 32 32 29 23 26 26 23 26 26 26 26 26 23 16 19 13 16 16 10 13 10 6 3 3 0 0 0 0 0 0 0 0 0 0 3 6 6 3 3
16 26 23 32 29 26 23 23 26 23 23 23 23 23 32 29 26 16 19 16 16 10 6 10 6 3 0 0 0 0 0 0 0 0 0 0 0 0 0 0 3 3 3
16 26 23 29 29 23 19 19 23 19 19 26 26 26 29 29 23 16 10 13 6 6 6 10 6 0 0 0 0 0 0 0 0 0 0 0 0 0 0 0 0 3 3
13 13 23 23 19 19 19 16 16 16 19 26 29 29 26 26 16 13 10 6 6 10 10 10 6 3 3 0 0 0 0 0 0 0 0 0 0 0 0 0 0 3 3
16 16 19 19 13 16 10 13 10 13 16 23 26 16 10 3 6 3 3 3 6 10 6 10 6 3 3 3 0 0 0 0 0 0 0 0 0 0 0 0 0 0 3
6 10 10 13 13 13 13 3 10 6 3 6 3 0 0 3 0 0 0 0 0 3 6 10 6 3 3 0 0 0 0 0 0 0 0 0 0 0 0 0 0 0 3
6 10 10 10 10 6 6 6 3 3 6 6 3 3 3 3 0 0 0 0 0 0 0 6 6 3 0 0 0 0 0 0 0 0 0 0 0 0 0 0 0 0 3
6 3 0 3 10 6 3 3 3 10 6 6 3 3 10 6 0 0 0 0 0 0 0 3 3 0 0 0 0 0 0 0 0 0 0 0 0 0 3 0 0 0 3
3 3 0 0 0 6 3 3 0 0 6 6 6 3 6 10 6 0 3 3 0 0 0 0 0 0 0 0 0 0 0 0 0 0 0 0 0 0 0 3 0 0 0
3 3 3 0 0 0 0 0 0 0 3 3 3 3 3 6 3 0 0 0 0 0 0 0 0 0 0 0 0 0 0 0 0 0 0 0 0 0 0 0 0 0 0
3 3 3 0 0 0 0 0 0 0 0 0 0 0 3 0 0 0 0 0 0 0 0 0 0 0 0 0 0 0 0 0 0 0 0 0 0 0 0 0 0 0 0
0 0 0 0 0 0 0 0 0 0 0 0 0 0 0 0 0 0 0 0 0 0 0 0 0 0 0 0 0 0 0 0 0 0 0 0 0 0 0 0 0 0 0
0 0 0 0 0 0 0 0 0 0 0 0 0 0 0 0 0 0 0 0 0 0 0 0 0 0 0 0 0 0 0 0 0 0 0 0 0 0 0 0 0 0 0
0 0 0 0 0 0 0 0 3 3 3 3 3 3 0 0 0 0 0 0 0 0 0 0 0 0 0 0 0 0 0 0 0 0 0 0 0 0 0 0 0 0 0
0 0 0 0 0 0 3 0 0 0 0 0 3 3 0 0 0 0 0 0 0 0 0 0 0 0 0 0 0 0 0 0 0 0 0 0 0 0 0 0 0 0 0
0 0 0 0 0 0 0 0 0 0 0 0 0 0 0 0 0 0 0 0 0 0 0 0 0 0 0 0 0 0 0 0 0 0 0 0 0 0 0 0 0 0 0
0 0 0 0 0 0 0 0 0 0 0 0 0 0 0 0 0 0 0 0 0 0 0 0 0 0 0 0 0 0 0 0 0 0 0 0 0 0 0 0 0 0 0
0 0 0 0 0 0 0 0 0 0 0 0 0 0 0 0 0 0 0 0 0 0 0 0 0 0 0 0 0 0 0 0 0 0 0 0 0 0 0 0 0 0 0
0 0 0 0 0 0 0 0 0 0 0 0 0 0 0 0 0 0 0 0 0 0 0 0 0 0 0 0 0 0 0 0 0 0 0 0 0 0 0 0 0 0 0
0 0 0 0 0 0 0 0 0 0 0 0 0 0 0 0 0 0 0 0 0 0 0 0 0 0 0 0 0 0 0 0 0 0 0 0 0 0 0 0 0 0 0
0 0 0 0 0 0 0 0 0 0 0 0 0 0 0 0 0 0 0 0 0 0 0 0 0 0 0 0 0 0 0 0 0 0 0 0 0 0 0 0 0 0 0

GEFSSE_con_cape1000_186.txt.gz
Probability
23 26 39 32 35 32 29 32 35 35 39 39 39 29 32 19 16 19 19 23 23 26 26 19 19 16 13 10 6 13 13 10 10 10 10 10 10 6 6 3 3 3 13
19 23 35 29 32 35 32 29 35 32 35 39 35 35 26 19 13 16 13 19 26 26 26 19 16 16 16 13 13 13 10 10 10 6 3 3 6 6 3 6 6 3 3
16 23 32 29 32 35 32 26 29 29 29 29 35 35 32 23 13 16 19 19 23 26 23 23 19 19 16 16 16 10 6 6 3 0 0 0 0 3 3 3 6 3 3
19 23 19 39 32 35 35 23 29 29 29 29 29 32 29 26 13 13 19 19 19 16 19 19 19 16 16 13 13 10 6 0 0 0 0 0 0 3 3 3 6 3 3
16 19 23 39 32 32 29 26 23 26 26 23 23 23 29 26 19 13 19 19 19 16 16 16 16 13 13 13 13 6 6 0 0 0 0 0 0 3 3 3 6 6 6
16 16 23 35 32 32 23 26 19 26 16 19 23 23 26 26 23 13 19 23 19 16 13 13 13 13 13 10 10 6 3 0 0 0 0 0 0 3 0 0 6 6 6
13 16 23 35 32 26 23 23 23 23 16 16 23 23 16 19 19 13 13 19 19 16 13 13 13 13 6 10 6 3 0 0 0 0 0 0 0 3 3 0 0 3 10
16 19 23 32 32 26 26 23 23 16 13 13 16 23 23 23 19 16 13 16 16 16 13 13 13 10 6 6 6 3 0 0 0 0 0 0 0 0 0 0 3 3 6
13 13 16 16 16 26 23 23 23 19 16 16 19 23 23 23 26 19 13 10 6 6 13 13 13 10 6 6 6 0 0 0 0 0 0 0 0 0 0 0 0 3 3
13 10 13 10 10 10 10 13 13 10 13 13 13 13 6 6 10 13 6 6 3 3 3 6 10 10 6 6 6 0 0 0 0 0 0 0 0 0 0 0 0 0 3
0 3 10 6 6 3 3 3 3 6 6 6 3 3 0 0 3 3 0 0 0 3 3 10 6 6 6 0 0 0 0 0 0 0 0 0 0 0 0 0 0 0 3
0 3 0 3 0 0 0 0 0 3 3 0 0 0 0 0 0 0 0 0 0 0 3 3 6 6 3 0 0 0 0 0 0 0 0 0 0 0 0 0 0 3 3
0 0 3 0 0 0 0 0 0 0 3 0 0 0 0 0 0 0 0 0 0 0 0 0 0 0 3 0 0 0 0 0 0 0 0 0 0 0 0 0 0 0 0
0 0 0 0 0 0 0 0 0 3 3 0 0 0 0 0 0 0 0 0 0 0 0 0 0 0 0 0 0 0 0 0 0 0 0 0 0 0 0 0 0 0 0
0 0 0 0 0 0 0 0 0 0 0 0 0 0 0 0 0 0 0 0 0 0 0 0 0 0 0 0 0 0 0 0 0 0 0 0 0 0 0 0 0 0 0
0 0 0 0 0 0 0 0 0 0 0 0 0 0 0 0 0 0 0 0 0 0 0 0 0 0 0 0 0 0 0 0 0 0 0 0 0 0 0 0 0 0 0
0 0 0 0 0 0 0 0 0 0 0 0 0 0 0 0 0 0 0 0 0 0 0 0 0 0 0 0 0 0 0 0 0 0 0 0 0 0 0 0 0 0 0
0 0 0 0 0 0 0 0 0 0 0 0 0 0 0 0 0 0 0 0 0 0 0 0 0 0 0 0 0 0 0 0 0 0 0 0 0 0 0 0 0 0 0
0 0 0 0 0 0 0 0 0 0 0 0 0 0 0 0 0 0 0 0 0 0 0 0 0 0 0 0 0 0 0 0 0 0 0 0 0 0 0 0 0 0 0
0 0 0 0 0 0 0 0 0 0 0 0 0 0 0 0 0 0 0 0 0 0 0 0 0 0 0 0 0 0 0 0 0 0 0 0 0 0 0 0 0 0 0
0 0 0 0 0 0 0 0 0 0 0 0 0 0 0 0 0 0 0 0 0 0 0 0 0 0 0 0 0 0 0 0 0 0 0 0 0 0 0 0 0 0 0
0 0 0 0 0 0 0 0 0 0 0 0 0 0 0 0 0 0 0 0 0 0 0 0 0 0 0 0 0 0 0 0 0 0 0 0 0 0 0 0 0 0 0
0 0 0 0 0 0 0 0 0 0 0 0 0 0 0 0 0 0 0 0 0 0 0 0 0 0 0 0 0 0 0 0 0 0 0 0 0 0 0 0 0 0 0
0 0 0 0 0 0 0 0 0 0 0 0 0 0 0 0 0 0 0 0 0 0 0 0 0 0 0 0 0 0 0 0 0 0 0 0 0 0 0 0 0 0 0
0 0 0 0 0 0 0 0 0 0 0 0 0 0 0 0 0 0 0 0 0 0 0 0 0 0 0 0 0 0 0 0 0 0 0 0 0 0 0 0 0 0 0
0 0 0 0 0 0 0 0 0 0 0 0 0 0 0 0 0 0 0 0 0 0 0 0 0 0 0 0 0 0 0 0 0 0 0 0 0 0 0 0 0 0 0

GEFSSE_con_cape1000_192.txt.gz
Probability
3 16 39 32 32 32 26 29 29 26 29 35 32 32 26 23 19 26 26 26 29 29 26 19 23 19 13 16 13 16 13 13 13 6 10 10 13 13 10 6 6 3 13
6 13 42 32 35 32 26 26 26 26 29 29 29 29 29 19 19 16 16 16 26 26 19 19 26 16 10 10 13 10 13 10 3 3 3 6 13 10 6 6 10 0 6
6 23 29 32 35 32 29 26 29 26 29 26 26 23 19 23 19 19 16 16 19 26 29 23 23 13 16 16 10 10 10 10 0 0 0 0 0 3 6 10 10 6 10
6 19 19 35 35 35 32 26 23 29 32 26 26 23 19 16 13 13 19 19 19 23 29 23 19 16 16 16 13 10 10 6 0 0 0 0 0 6 3 3 3 3 3
10 10 23 35 32 35 32 32 29 29 29 26 16 19 23 23 13 10 13 19 19 29 29 26 16 13 13 13 10 6 6 6 0 0 0 0 0 3 3 3 3 0 0
6 10 16 32 32 32 32 29 29 26 23 23 19 23 23 23 13 16 13 13 23 26 26 23 13 13 13 13 10 6 6 0 0 0 0 0 0 3 3 3 3 3 0
6 6 10 32 32 29 26 26 23 26 19 23 19 19 16 16 23 16 16 23 19 19 23 19 16 13 13 10 10 6 6 0 0 0 0 0 0 3 3 3 3 0 0
6 6 13 35 29 23 23 26 26 23 23 19 23 23 16 16 16 19 16 13 16 19 13 19 16 13 13 10 10 10 3 0 0 0 0 0 0 3 0 3 3 0 3
3 10 13 19 19 19 19 19 26 23 19 16 19 23 23 19 23 16 19 16 23 16 16 13 16 13 10 10 10 6 0 0 0 0 0 0 0 0 0 0 3 0 3
3 3 3 6 6 3 10 16 16 19 16 13 19 13 6 3 6 16 16 19 19 6 10 13 6 13 10 10 10 3 0 0 0 0 0 0 0 0 0 0 0 0 3
0 3 0 0 3 0 0 10 10 6 6 6 10 3 3 0 0 0 3 0 6 3 3 6 3 6 6 3 3 0 0 0 0 0 0 0 0 0 0 3 0 0 0
0 0 0 0 0 0 0 0 3 3 3 3 3 3 0 0 0 0 0 0 0 0 0 3 0 0 0 0 0 0 0 0 0 0 0 0 0 0 3 0 0 0 0
0 0 0 0 0 0 0 0 0 0 0 3 0 3 0 0 0 0 0 0 0 0 0 0 0 0 0 0 0 0 0 0 0 0 0 0 3 3 3 0 0 0 0
0 0 0 0 0 0 0 0 0 0 0 0 0 0 0 0 0 0 0 0 0 0 0 0 0 0 0 0 0 0 0 0 0 0 0 0 0 3 3 0 0 0 0
0 0 0 0 0 0 0 0 0 0 0 0 0 0 0 0 0 0 0 0 0 0 0 0 0 0 0 0 0 0 0 0 0 0 0 0 0 0 3 0 0 0 0
0 0 0 0 0 0 0 0 0 0 0 0 0 0 0 0 0 0 0 0 0 0 0 0 0 0 0 0 0 0 0 0 0 0 0 0 0 0 0 0 0 0 0
0 0 0 0 0 0 0 0 0 0 0 0 0 0 0 0 0 0 0 0 0 0 0 0 0 0 0 0 0 0 0 0 0 0 0 0 0 0 0 0 0 0 0
0 0 0 0 0 0 0 0 0 0 0 0 0 0 0 0 0 0 0 0 0 0 0 0 0 0 0 0 0 0 0 0 0 0 0 0 0 0 0 0 0 0 0
0 0 0 0 0 0 0 0 0 0 0 0 0 0 0 0 0 0 0 0 0 0 0 0 0 0 0 0 0 0 0 0 0 0 0 0 0 0 0 0 0 0 0
0 0 0 0 0 0 0 0 0 0 0 0 0 0 0 0 0 0 0 0 0 0 0 0 0 0 0 0 0 0 0 0 0 0 0 0 0 0 0 0 0 0 0
0 0 0 0 0 0 0 0 0 0 0 0 0 0 0 0 0 0 0 0 0 0 0 0 0 0 0 0 0 0 0 0 0 0 0 0 0 0 0 0 0 0 0
0 0 0 0 0 0 0 0 0 0 0 0 0 0 0 0 0 0 0 0 0 0 0 0 0 0 0 0 0 0 0 0 0 0 0 0 0 0 0 0 0 0 0
0 0 0 0 0 0 0 0 0 0 0 0 0 0 0 0 0 0 0 0 0 0 0 0 0 0 0 0 0 0 0 0 0 0 0 0 0 0 0 0 0 0 0
0 0 0 0 0 0 0 0 0 0 0 0 0 0 0 0 0 0 0 0 0 0 0 0 0 0 0 0 0 0 0 0 0 0 0 0 0 0 0 0 0 0 0
0 0 0 0 0 0 0 0 0 0 0 0 0 0 0 0 0 0 0 0 0 0 0 0 0 0 0 0 0 0 0 0 0 0 0 0 0 0 0 0 0 0 0
0 0 0 0 0 0 0 0 0 0 0 0 0 0 0 0 0 0 0 0 0 0 0 0 0 0 0 0 0 0 0 0 0 0 0 0 0 0 0 0 0 0 0

GEFSSE_con_cape1000_198.txt.gz
Probability
0 3 32 35 32 29 23 26 23 26 23 26 23 19 29 23 29 32 32 29 35 29 26 19 19 23 23 26 19 13 16 13 13 13 6 10 13 10 6 6 6 6 6
0 6 35 39 32 32 29 23 23 26 26 23 23 16 19 23 26 23 26 26 26 23 26 23 23 19 19 16 13 16 10 10 6 6 6 6 13 10 6 10 10 6 10
3 6 23 35 35 26 26 26 26 23 26 23 19 19 19 19 19 16 16 19 23 23 23 23 19 16 16 13 6 10 6 6 3 3 0 0 0 13 6 6 10 10 10
3 6 6 32 32 29 29 26 23 26 26 19 16 19 16 13 16 16 16 19 19 26 26 23 19 16 16 10 10 10 6 3 3 0 0 0 0 6 3 3 3 3 6
6 6 6 26 32 29 26 29 29 23 26 19 16 16 16 10 13 13 16 19 26 23 23 26 19 19 10 10 10 10 6 3 0 0 0 0 0 3 6 3 3 6 6
6 6 6 23 32 32 32 29 32 26 26 19 19 16 13 10 10 16 13 16 19 19 19 19 19 13 13 10 10 6 6 6 0 0 0 0 0 3 6 0 3 6 6
3 3 6 19 29 29 32 29 29 26 26 23 16 10 13 10 10 16 16 19 19 16 16 16 13 10 3 10 6 6 6 3 0 0 0 0 0 3 3 0 0 3 3
3 3 6 16 19 26 26 29 29 23 26 23 19 13 16 16 13 13 16 16 13 13 16 10 10 10 10 3 3 10 6 0 0 0 0 0 0 3 3 0 0 0 0
0 0 0 0 10 16 19 23 26 23 23 23 19 16 16 19 13 13 13 16 16 19 19 10 10 6 6 6 3 3 0 0 0 0 0 0 0 0 3 0 0 0 0
0 0 0 0 0 0 0 10 13 13 19 13 10 10 3 6 6 10 10 13 16 19 19 6 6 3 3 3 3 0 0 0 0 0 0 0 0 0 0 0 0 3 3
0 0 0 0 0 0 0 0 0 0 3 6 3 3 3 3 0 3 3 6 13 16 19 6 3 3 0 0 0 0 0 0 0 0 0 0 0 0 0 0 0 0 0
0 0 0 0 0 0 0 0 0 0 0 3 3 3 0 0 0 0 0 0 3 3 3 3 0 0 0 0 0 0 0 0 0 0 0 0 0 0 0 0 3 0 0
0 0 0 0 0 0 0 0 0 0 0 0 0 0 0 0 0 0 0 0 0 0 0 0 0 0 0 0 0 0 0 0 0 0 0 0 0 0 3 3 6 3 0
0 0 0 0 0 0 0 0 0 0 0 0 0 0 0 0 0 0 0 0 0 0 0 0 0 0 0 0 0 0 0 0 0 0 0 0 0 0 6 0 0 3 0
0 0 0 0 0 0 0 0 0 0 0 0 0 0 0 0 0 0 0 0 0 0 0 0 0 0 0 0 0 0 0 0 0 0 0 0 0 0 6 0 0 3 0
0 0 0 0 0 0 0 0 0 0 0 0 0 0 0 0 0 0 0 0 0 0 0 0 0 0 0 0 0 0 0 0 0 0 0 0 0 0 0 0 0 0 0
0 0 0 0 0 0 0 0 0 0 0 0 0 0 0 0 0 0 0 0 0 0 0 0 0 0 0 0 0 0 0 0 0 0 0 0 0 0 0 0 0 0 0
0 0 0 0 0 0 0 0 0 0 0 0 0 0 0 0 0 0 0 0 0 0 0 0 0 0 0 0 0 0 0 0 0 0 0 0 0 0 0 0 0 0 0
0 0 0 0 0 0 0 0 0 0 0 0 0 0 0 0 0 0 0 0 0 0 0 0 0 0 0 0 0 0 0 0 0 0 0 0 0 0 0 0 0 0 0
0 0 0 0 0 0 0 0 0 0 0 0 0 0 0 0 0 0 0 0 0 0 0 0 0 0 0 0 0 0 0 0 0 0 0 0 0 0 0 0 0 0 0
0 0 0 0 0 0 0 0 0 0 0 0 0 0 0 0 0 0 0 0 0 0 0 0 0 0 0 0 0 0 0 0 0 0 0 0 0 0 0 0 0 0 0
0 0 0 0 0 0 0 0 0 0 0 0 0 0 0 0 0 0 0 0 0 0 0 0 0 0 0 0 0 0 0 0 0 0 0 0 0 0 0 0 0 0 0
0 0 0 0 0 0 0 0 0 0 0 0 0 0 0 0 0 0 0 0 0 0 0 0 0 0 0 0 0 0 0 0 0 0 0 0 0 0 0 0 0 0 0
0 0 0 0 0 0 0 0 0 0 0 0 0 0 0 0 0 0 0 0 0 0 0 0 0 0 0 0 0 0 0 0 0 0 0 0 0 0 0 0 0 0 0
0 0 0 0 0 0 0 0 0 0 0 0 0 0 0 0 0 0 0 0 0 0 0 0 0 0 0 0 0 0 0 0 0 0 0 0 0 0 0 0 0 0 0
0 0 0 0 0 0 0 0 0 0 0 0 0 0 0 0 0 0 0 0 0 0 0 0 0 0 0 0 0 0 0 0 0 0 0 0 0 0 0 0 0 0 0

GEFSSE_con_cape1000_204.txt.gz
Probability
3 6 23 32 29 29 26 26 35 32 32 32 26 23 19 16 26 32 29 23 23 32 19 23 23 23 23 23 13 19 23 26 29 29 29 29 23 6 6 6 10 13 10
3 6 19 32 29 23 29 29 35 39 39 39 35 39 26 16 26 26 26 29 26 23 16 19 16 23 26 26 19 16 19 23 16 13 13 13 23 16 13 10 23 10 13
0 10 13 26 35 29 29 32 35 35 35 35 35 32 29 19 23 29 29 23 16 19 16 16 23 19 23 19 16 13 23 19 6 6 3 0 6 13 10 10 13 10 6
0 13 10 23 23 26 26 29 29 23 29 32 29 29 23 19 19 29 19 19 16 13 13 19 13 13 16 19 10 13 13 6 3 3 0 0 0 6 10 13 13 10 10
6 6 10 26 29 26 26 26 29 19 23 29 32 29 26 26 16 19 19 19 19 19 16 16 13 23 23 19 10 6 6 6 3 0 0 0 0 6 10 13 10 10 13
3 6 6 19 26 26 26 26 26 29 23 26 19 19 16 16 16 10 13 19 19 16 19 16 16 16 19 13 6 3 3 6 0 0 0 0 0 6 6 10 13 13 6
3 3 6 16 16 19 23 26 26 26 29 16 19 16 16 16 13 13 13 16 19 16 16 13 10 16 13 10 3 3 3 0 0 0 0 0 3 3 3 6 10 10 6
3 3 3 6 10 13 16 19 19 23 29 26 19 16 19 13 13 13 13 13 16 16 16 13 10 13 13 13 3 0 3 0 0 0 0 0 3 3 3 3 3 3 3
3 3 3 3 3 3 3 6 19 19 19 23 23 16 16 19 16 13 10 10 16 13 16 13 13 10 10 6 6 3 0 0 0 0 0 0 0 0 0 3 3 3 3
3 6 6 6 6 6 3 0 0 10 13 13 10 6 3 3 6 10 3 6 6 13 10 13 10 10 6 3 3 0 0 0 0 0 0 0 0 0 6 3 3 0 0
0 0 0 6 6 6 0 0 0 0 0 0 3 3 3 3 3 10 3 3 6 6 10 6 6 6 3 0 0 0 0 0 0 0 0 0 0 0 3 6 6 6 0
0 0 0 6 6 6 0 3 3 10 3 3 3 3 6 3 6 0 0 0 3 3 3 3 3 3 0 0 0 0 0 0 0 0 0 0 0 0 0 3 6 3 3
0 0 0 0 3 6 3 6 6 6 10 3 0 3 3 3 6 10 6 0 0 0 3 3 0 0 0 0 0 0 0 0 0 0 0 0 0 0 3 0 6 3 3
0 0 0 0 0 0 0 3 3 6 6 6 3 3 3 3 6 6 10 10 10 3 3 6 0 0 0 0 0 0 0 0 0 0 0 0 0 0 3 3 3 0 0
0 0 0 0 0 0 0 3 3 3 3 3 0 3 3 3 6 6 3 6 3 3 3 6 3 0 0 0 0 0 0 0 0 0 0 0 0 0 0 3 3 3 0
0 0 0 0 0 0 3 3 3 3 3 0 0 0 0 3 3 3 3 3 3 3 6 3 3 0 0 0 0 0 0 0 0 0 0 0 0 0 0 3 0 3 3
0 0 0 0 0 0 0 0 0 0 0 0 0 0 0 0 3 3 3 3 3 6 6 3 0 0 0 0 0 0 0 0 0 0 0 0 0 0 0 0 0 0 0
0 0 0 0 0 0 0 0 0 0 0 0 0 0 0 0 0 3 3 3 3 3 6 0 0 0 0 0 0 0 0 0 0 0 0 0 0 0 0 0 0 0 0
0 0 0 0 0 0 0 0 0 0 0 0 0 0 0 0 0 0 3 3 3 0 0 0 0 0 0 0 0 0 0 0 0 0 0 0 0 0 0 0 0 0 0
0 0 0 0 0 0 0 0 0 0 0 0 0 0 0 0 0 0 0 0 0 0 0 0 0 0 0 0 0 0 0 0 0 0 0 0 0 0 0 0 0 0 0
0 0 0 0 0 0 0 0 0 0 0 0 0 0 0 0 0 0 0 0 0 0 0 0 0 0 0 0 0 0 0 0 0 0 0 0 0 0 0 0 0 0 0
0 0 0 0 0 0 0 0 0 0 0 0 0 0 0 0 0 0 0 0 0 0 0 0 0 0 0 0 0 0 0 0 0 0 0 0 0 0 0 0 0 0 0
0 0 0 0 0 0 0 0 0 0 0 0 0 0 0 0 0 0 0 0 0 0 0 0 0 0 0 0 0 0 0 0 0 0 0 0 0 0 0 0 0 0 0
0 0 0 0 0 0 0 0 0 0 0 0 0 0 0 0 0 0 0 0 0 0 0 0 0 0 0 0 0 0 0 0 0 0 0 0 0 0 0 0 0 0 0
0 0 0 0 0 0 0 0 0 0 0 0 0 0 0 0 0 0 0 0 0 0 0 0 0 0 0 0 0 0 0 0 0 0 0 0 0 0 0 0 0 0 0
0 0 0 0 0 0 0 0 0 0 0 0 0 0 0 0 0 0 0 0 0 0 0 0 0 0 0 0 0 0 0 0 0 0 0 0 0 0 0 0 0 0 0

GEFSSE_con_cape1000_210.txt.gz
Probability
16 19 42 35 26 26 32 42 35 35 32 29 19 26 23 19 23 26 23 29 29 23 13 16 16 19 19 32 29 29 29 29 32 29 35 39 29 26 16 23 26 13 23
16 19 39 39 29 32 32 35 39 39 35 29 29 19 19 16 19 16 19 23 23 23 19 16 19 16 19 23 32 32 32 26 16 10 6 10 35 26 16 23 26 3 16
13 19 26 29 29 42 42 42 39 35 35 35 26 26 19 13 16 16 16 16 26 16 16 16 23 16 16 23 19 26 23 19 13 10 0 0 3 19 16 19 26 16 19
13 13 6 29 29 39 39 39 39 35 35 35 32 32 26 23 16 19 13 16 19 23 16 16 13 10 19 23 19 13 16 10 6 0 0 0 0 13 16 19 23 16 26
10 13 6 26 23 29 29 26 35 35 39 39 35 32 26 26 23 23 19 23 16 19 19 19 19 19 23 16 16 13 16 3 3 0 0 0 0 3 16 16 13 13 13
6 10 6 19 23 29 23 23 23 23 29 29 32 32 32 23 23 23 23 16 19 13 16 19 19 16 19 16 16 13 10 3 0 0 0 0 0 3 10 10 13 10 10
3 6 6 19 16 26 19 23 23 19 23 26 26 26 19 19 23 19 16 16 10 10 16 16 16 13 13 16 16 10 6 0 0 0 0 0 0 3 6 13 13 13 13
3 10 3 23 16 19 19 23 19 16 19 23 23 26 23 19 19 13 13 10 10 6 13 13 16 16 16 16 19 6 3 0 0 0 0 0 0 10 3 6 6 6 6
3 3 3 6 3 3 10 10 13 13 16 19 23 19 16 16 13 13 13 10 10 6 13 13 16 16 16 16 16 3 0 0 0 0 0 0 0 6 3 3 3 3 6
3 6 3 3 3 3 0 0 0 3 10 13 10 6 3 3 6 6 10 10 10 10 10 13 16 16 16 13 10 0 0 0 0 0 0 0 3 3 3 3 3 10 6
3 3 3 3 3 3 0 0 0 0 0 3 3 3 0 0 3 3 3 3 3 10 10 10 16 16 6 3 3 0 0 0 0 0 0 0 10 3 6 3 6 10 10
0 0 3 3 3 0 0 0 0 0 0 0 3 0 0 0 0 0 0 0 3 3 6 6 6 6 0 0 0 0 0 0 0 0 0 0 3 6 6 6 6 6 10
0 0 0 3 6 6 0 0 0 0 0 0 3 3 0 0 3 0 0 0 0 3 3 3 3 0 0 0 0 0 0 0 0 0 0 0 0 3 3 10 10 6 6
0 0 0 0 0 3 0 0 0 0 0 0 3 3 3 3 0 0 0 0 0 0 0 0 0 0 0 0 0 0 0 0 0 0 0 0 0 0 0 6 3 3 10
0 0 0 0 0 0 0 0 0 3 0 0 0 0 0 0 0 0 0 0 0 0 0 0 0 0 0 0 0 0 0 0 0 0 0 0 0 0 0 3 6 3 6
0 0 0 0 0 0 0 0 0 0 0 0 0 0 0 0 0 0 0 0 0 0 0 0 3 0 0 0 0 0 0 0 0 0 0 0 0 0 0 3 3 6 6
0 0 0 0 0 0 0 0 0 0 0 0 0 0 0 0 0 0 0 0 0 3 0 0 3 0 0 0 0 0 0 0 0 0 0 0 0 0 0 3 3 0 6
0 0 0 0 0 0 0 0 0 0 0 0 0 0 0 0 0 0 0 0 0 0 0 3 0 0 0 0 0 0 0 0 0 0 0 0 0 0 0 0 0 0 3
0 0 0 0 0 0 0 0 0 0 0 0 0 0 0 0 0 0 0 0 0 0 0 0 0 0 0 0 0 0 0 0 0 0 0 0 0 0 0 0 0 0 0
0 0 0 0 0 0 0 0 0 0 0 0 0 0 0 0 0 0 0 0 0 0 0 0 0 0 0 0 0 0 0 0 0 0 0 0 0 0 0 0 0 0 0
0 0 0 0 0 0 0 0 0 0 0 0 0 0 0 0 0 0 0 0 0 0 0 0 0 0 0 0 0 0 0 0 0 0 0 0 0 0 0 0 0 0 0
0 0 0 0 0 0 0 0 0 0 0 0 0 0 0 0 0 0 0 0 0 0 0 0 0 0 0 0 0 0 0 0 0 0 0 0 0 0 0 0 0 0 0
0 0 0 0 0 0 0 0 0 0 0 0 0 0 0 0 0 0 0 0 0 0 0 0 0 0 0 0 0 0 0 0 0 0 0 0 0 0 0 0 0 0 0
0 0 0 0 0 0 0 0 0 0 0 0 0 0 0 0 0 0 0 0 0 0 0 0 0 0 0 0 0 0 0 0 0 0 0 0 0 0 0 0 0 0 0
0 0 0 0 0 0 0 0 0 0 0 0 0 0 0 0 0 0 0 0 0 0 0 0 0 0 0 0 0 0 0 0 0 0 0 0 0 0 0 0 0 0 0
0 0 0 0 0 0 0 0 0 0 0 0 0 0 0 0 0 0 0 0 0 0 0 0 0 0 0 0 0 0 0 0 0 0 0 0 0 0 0 0 0 0 0

GEFSSE_con_cape1000_216.txt.gz
Probability
10 10 48 39 39 35 35 39 42 35 29 26 26 26 26 26 26 26 26 32 32 32 26 26 23 19 32 35 42 35 35 35 35 35 35 35 29 23 19 19 19 6 26
10 13 52 42 39 42 35 35 39 35 29 29 26 29 26 29 23 23 26 29 23 23 23 26 29 23 29 29 29 26 19 19 23 19 10 13 29 26 29 26 23 6 16
10 16 32 35 32 35 42 39 39 29 32 32 29 32 29 23 23 23 26 19 26 23 23 23 29 19 23 23 23 19 19 10 10 3 0 0 3 23 26 26 29 23 26
6 13 19 29 32 32 32 35 42 32 32 32 35 26 29 26 19 16 19 23 19 19 19 19 10 16 19 19 16 19 19 13 6 0 0 0 0 16 19 26 26 26 23
3 3 16 29 23 29 32 32 32 23 29 35 35 35 29 29 19 23 23 19 16 16 19 19 13 13 16 19 16 19 13 10 3 0 0 0 0 10 16 23 19 19 23
0 3 16 26 23 29 29 32 29 26 23 29 32 35 32 23 23 26 23 26 19 19 16 16 13 13 13 16 13 13 13 10 0 0 0 0 0 3 16 13 13 13 13
0 3 10 29 23 29 29 32 29 26 26 29 29 26 32 23 23 23 19 23 16 13 13 13 13 13 13 16 13 13 10 3 0 0 0 0 0 10 19 19 13 13 10
0 3 10 23 19 19 26 23 23 26 26 26 29 23 19 13 16 19 23 16 16 13 10 10 13 13 13 10 13 13 6 0 0 0 0 0 0 10 13 16 13 10 10
0 0 6 13 13 16 16 13 16 19 19 23 23 19 19 19 13 16 19 16 16 13 13 13 13 13 13 13 19 13 3 0 0 0 0 0 0 10 10 16 16 13 13
0 0 0 6 3 3 10 10 13 13 16 16 16 13 13 10 10 6 6 16 16 13 10 10 10 10 13 13 10 6 0 0 0 0 0 0 6 6 6 6 6 10 6
0 0 0 3 6 0 0 3 0 0 0 0 3 3 3 3 3 3 3 3 3 10 10 6 6 10 13 6 3 0 0 0 0 0 0 0 6 6 3 6 3 3 10
3 0 0 3 3 3 0 0 0 0 0 0 0 0 0 0 0 0 3 3 3 3 6 6 6 10 3 0 0 0 0 0 0 0 0 0 6 3 0 3 13 6 10
0 0 0 0 0 3 0 0 0 0 0 0 0 0 0 0 0 0 0 0 0 0 0 3 6 0 0 0 0 0 0 0 0 0 0 0 10 6 3 6 6 6 6
0 0 0 0 0 0 0 0 0 0 0 0 0 0 0 0 0 0 0 0 0 0 0 0 0 0 0 0 0 0 0 0 0 0 0 0 6 10 6 10 6 6 6
0 0 0 0 0 0 0 0 0 0 0 0 0 0 0 0 0 0 0 0 0 0 0 0 0 0 0 0 0 0 0 0 0 0 0 0 0 3 10 10 10 10 6
0 0 0 0 0 0 0 0 0 0 0 0 0 0 0 0 0 0 0 0 0 0 0 0 0 0 0 0 0 0 0 0 0 0 0 0 0 0 3 10 10 10 10
0 0 0 0 0 0 0 0 0 0 0 0 0 0 0 0 0 0 0 0 0 0 0 0 0 0 0 0 0 0 0 0 0 0 0 0 0 0 0 3 10 10 10
0 0 0 0 0 0 0 0 0 0 0 0 0 0 0 0 0 0 0 0 0 0 0 0 0 0 0 0 0 0 0 0 0 0 0 0 0 0 0 0 3 10 10
0 0 0 0 0 0 0 0 0 0 0 0 0 0 0 0 0 0 0 0 0 0 0 0 0 0 0 0 0 0 0 0 0 0 0 0 0 0 0 0 0 0 3
0 0 0 0 0 0 0 0 0 0 0 0 0 0 0 0 0 0 0 0 0 0 0 0 0 0 0 0 0 0 0 0 0 0 0 0 0 0 0 0 0 0 0
0 0 0 0 0 0 0 0 0 0 0 0 0 0 0 0 0 0 0 0 0 0 0 0 0 0 0 0 0 0 0 0 0 0 0 0 0 0 0 0 0 0 0
0 0 0 0 0 0 0 0 0 0 0 0 0 0 0 0 0 0 0 0 0 0 0 0 0 0 0 0 0 0 0 0 0 0 0 0 0 0 0 0 0 0 0
0 0 0 0 0 0 0 0 0 0 0 0 0 0 0 0 0 0 0 0 0 0 0 0 0 0 0 0 0 0 0 0 0 0 0 0 0 0 0 0 0 0 0
0 0 0 0 0 0 0 0 0 0 0 0 0 0 0 0 0 0 0 0 0 0 0 0 0 0 0 0 0 0 0 0 0 0 0 0 0 0 0 0 0 0 0
0 0 0 0 0 0 0 0 0 0 0 0 0 0 0 0 0 0 0 0 0 0 0 0 0 0 0 0 0 0 0 0 0 0 0 0 0 0 0 0 0 0 0
0 0 0 0 0 0 0 0 0 0 0 0 0 0 0 0 0 0 0 0 0 0 0 0 0 0 0 0 0 0 0 0 0 0 0 0 0 0 0 0 0 0 0

GEFSSE_con_cape1000_222.txt.gz
Probability
3 6 39 32 29 23 26 32 29 26 26 35 32 35 35 29 26 29 32 32 29 29 39 29 35 29 29 32 32 32 26 29 35 29 29 35 23 19 23 23 13 0 35
3 6 35 39 29 29 23 26 29 32 29 29 29 29 29 29 26 26 29 29 26 29 23 26 26 23 29 42 35 29 26 23 23 16 6 13 26 26 16 23 23 3 42
6 6 29 35 29 32 35 23 32 32 29 26 29 26 23 26 29 23 23 32 23 23 26 16 23 19 29 26 32 29 26 16 13 6 0 0 3 26 16 26 19 16 26
6 10 19 29 26 26 29 26 23 32 32 32 29 29 26 26 26 26 23 26 23 23 23 10 16 19 23 19 16 23 19 10 13 0 0 0 0 13 13 16 23 23 16
6 10 19 26 23 23 26 26 23 23 29 32 32 29 26 26 26 26 23 23 19 23 23 16 23 19 26 19 13 16 13 10 6 0 0 0 0 6 10 23 23 26 19
3 6 19 26 19 19 23 26 29 23 19 26 29 29 26 29 26 29 26 26 26 26 16 16 13 16 19 16 16 13 10 13 3 0 0 0 0 6 16 16 19 16 16
0 0 13 19 19 23 19 26 19 16 19 23 26 29 26 32 26 32 23 19 19 16 13 16 10 16 13 13 10 10 6 6 0 0 0 0 0 10 23 16 10 13 10
0 0 10 26 29 26 23 23 19 19 19 23 19 29 32 29 29 19 19 19 16 13 13 6 10 10 13 13 13 10 6 3 0 0 0 0 0 6 10 13 10 10 6
0 0 3 16 19 23 19 19 19 19 23 26 26 29 29 35 23 19 23 16 16 16 13 13 10 10 13 13 13 10 3 0 0 0 0 0 3 3 10 13 13 6 6
0 0 0 6 13 13 13 13 13 16 16 16 19 10 3 3 16 19 16 16 16 16 13 10 13 6 16 13 10 3 3 0 0 0 0 0 3 3 3 13 10 10 10
0 0 0 0 0 3 6 13 10 6 10 3 0 0 0 0 3 3 3 6 6 10 16 10 13 10 6 6 3 3 0 0 0 0 0 0 3 3 3 10 6 10 10
3 0 0 3 0 0 3 3 3 3 0 0 0 0 0 0 0 0 3 3 3 3 3 3 3 3 3 0 0 0 0 0 0 0 0 0 3 3 3 10 19 10 10
3 0 0 3 3 0 0 0 0 0 0 0 0 0 0 0 0 0 0 0 0 0 0 0 0 0 0 0 0 0 0 0 0 0 0 0 3 3 3 0 6 6 3
3 3 0 3 3 0 0 0 0 0 0 0 0 0 0 0 0 0 0 0 0 0 0 0 0 0 0 0 0 0 0 0 0 0 0 0 0 0 0 0 3 6 10
0 0 0 0 3 3 0 0 0 0 0 0 0 0 0 0 0 0 0 0 0 0 0 0 0 0 0 0 0 0 0 0 0 0 0 0 0 0 0 3 3 6 3
0 0 0 0 3 3 0 0 0 0 0 0 0 0 0 0 0 0 0 0 0 0 0 0 0 0 0 0 0 0 0 0 0 0 0 0 0 0 0 0 0 10 6
0 0 0 0 0 0 0 0 0 0 0 0 0 0 0 0 0 0 0 0 0 0 0 0 0 0 0 0 0 0 0 0 0 0 0 0 0 0 0 0 0 10 6
0 0 0 0 0 0 0 0 0 0 0 0 0 0 0 0 0 0 0 0 0 0 0 0 0 0 0 0 0 0 0 0 0 0 0 0 0 0 0 0 0 3 6
0 0 0 0 0 0 0 0 0 0 0 0 0 0 0 0 0 0 0 0 0 0 0 0 0 0 0 0 0 0 0 0 0 0 0 0 0 0 0 0 0 0 0
0 0 0 0 0 0 0 0 0 3 0 0 0 0 0 0 0 0 0 0 0 0 0 0 0 0 0 0 0 0 0 0 0 0 0 0 0 0 0 0 0 0 0
0 0 0 0 0 0 0 0 3 3 0 0 0 0 0 0 0 0 0 0 0 0 0 0 0 0 0 0 0 0 0 0 0 0 0 0 0 0 0 0 0 0 0
0 0 0 0 0 0 0 0 0 0 0 0 0 0 0 0 0 0 0 0 0 0 0 0 0 0 0 0 0 0 0 0 0 0 0 0 0 0 0 0 0 0 0
0 0 0 0 0 0 0 0 0 0 0 0 0 0 0 0 0 0 0 0 0 0 0 0 0 0 0 0 0 0 0 0 0 0 0 0 0 0 0 0 0 0 0
0 0 0 0 0 0 0 0 0 0 0 0 0 0 0 0 0 0 0 0 0 0 0 0 0 0 0 0 0 0 0 0 0 0 0 0 0 0 0 0 0 0 0
0 0 0 0 0 0 0 0 0 0 0 0 0 0 0 0 0 0 0 0 0 0 0 0 0 0 0 0 0 0 0 0 0 0 0 0 0 0 0 0 0 0 0
0 0 0 0 0 0 0 0 0 0 0 0 0 0 0 0 0 0 0 0 0 0 0 0 0 0 0 0 0 0 0 0 0 0 0 0 0 0 0 0 0 0 0

GEFSSE_con_cape1000_228.txt.gz
Probability
10 29 35 35 35 35 32 39 39 42 42 39 39 32 32 32 35 35 39 35 42 42 45 48 48 32 29 29 32 26 23 16 16 19 32 42 39 35 29 23 26 16 26
6 23 35 35 35 35 35 32 39 39 42 42 39 39 35 35 32 32 29 39 35 35 32 35 35 32 29 32 29 29 29 23 26 26 16 23 35 39 23 32 29 19 29
10 13 26 32 32 39 35 32 32 32 39 42 42 39 32 32 29 32 23 23 32 35 29 29 32 35 35 35 29 29 29 26 16 13 6 6 6 19 16 26 39 35 29
13 13 16 35 29 32 35 32 29 32 32 35 39 32 32 26 29 29 23 23 19 29 26 19 29 29 29 29 29 23 19 16 10 3 3 6 6 10 16 13 32 35 32
10 13 19 29 23 23 26 26 29 29 29 32 32 32 32 29 26 26 19 23 23 23 19 16 13 19 32 32 26 23 13 6 10 0 3 6 6 10 13 16 23 19 26
13 16 16 26 23 23 26 26 26 26 29 29 29 23 26 26 29 19 23 26 19 16 16 13 13 13 23 23 23 19 13 6 0 3 0 0 3 10 13 16 16 16 16
13 19 16 23 23 23 23 23 26 23 23 19 26 23 19 26 29 26 29 26 26 16 16 6 13 13 13 16 19 13 10 3 0 0 0 0 3 10 10 13 13 19 13
6 19 19 23 19 23 19 23 23 23 23 23 23 23 23 26 26 29 29 26 19 13 13 10 16 16 16 13 13 16 6 0 0 0 3 0 10 13 16 10 13 19 16
10 13 16 16 13 16 16 16 16 19 19 26 23 23 26 32 29 26 29 26 19 13 13 19 13 10 19 16 16 16 3 0 0 0 0 0 6 10 6 13 16 13 13
16 19 13 16 16 16 16 10 13 13 16 16 16 19 23 19 19 16 13 19 19 16 13 13 16 10 16 13 10 3 3 0 0 0 0 0 3 6 6 13 16 6 10
13 16 16 13 16 16 16 6 6 6 10 6 6 3 0 10 10 6 6 6 10 10 13 10 13 16 6 3 0 0 0 3 0 0 0 0 3 3 6 10 10 16 6
10 10 13 13 16 16 13 13 13 10 10 3 10 6 6 6 6 0 0 0 3 3 3 6 10 6 0 0 0 0 0 0 3 3 0 0 3 3 3 6 10 13 10
6 6 10 13 13 16 16 16 13 13 13 10 10 6 10 6 3 6 10 3 3 0 3 3 3 3 3 0 0 3 3 3 3 3 0 0 3 3 3 3 6 6 3
3 6 6 10 13 13 16 13 13 10 13 13 13 13 10 10 6 3 10 10 6 3 3 3 6 3 0 0 0 0 0 3 3 3 3 0 0 3 3 3 3 0 0
3 3 0 6 10 13 13 13 6 10 13 13 10 10 6 6 3 0 3 6 6 6 6 3 3 0 0 0 0 0 0 3 3 3 0 0 0 3 3 3 0 0 0
0 0 0 0 0 6 13 6 10 10 13 3 10 0 3 3 3 6 0 0 0 3 6 3 0 0 0 0 0 0 0 0 0 0 0 0 0 0 3 3 3 3 3
0 0 0 0 0 0 0 6 10 6 6 6 0 0 0 0 0 3 0 0 3 3 3 0 0 0 0 0 0 0 0 0 0 0 0 0 0 0 0 3 3 0 3
0 0 0 0 0 0 0 3 10 6 6 6 0 0 0 0 3 0 0 0 3 3 0 0 0 0 0 0 0 0 0 0 0 0 0 0 0 0 0 0 0 0 0
0 0 0 0 0 0 0 0 6 6 6 3 0 0 0 0 0 0 0 0 0 0 0 0 0 0 0 0 0 0 0 0 0 0 0 0 0 0 0 0 0 0 0
0 0 0 0 0 0 0 0 0 0 3 0 0 0 0 0 0 0 0 0 0 0 0 0 0 0 0 0 0 0 0 0 0 0 0 0 0 0 0 0 0 0 0
0 0 0 0 0 0 0 0 0 0 3 3 0 0 0 0 0 0 0 0 0 0 0 0 0 0 0 0 0 0 0 0 0 0 0 0 0 0 0 0 0 0 0
0 0 0 0 0 0 0 0 0 0 0 3 3 0 0 0 0 0 0 0 0 0 0 0 0 0 0 0 0 0 0 0 0 0 0 0 0 0 0 0 0 0 0
0 0 0 0 0 0 0 0 0 0 0 3 3 3 0 0 0 0 0 0 0 0 0 0 0 0 0 0 0 0 0 0 0 0 0 0 0 0 0 0 0 0 0
0 0 0 0 0 0 0 0 0 0 0 0 3 3 0 0 0 0 0 0 0 0 0 0 0 0 0 0 0 0 0 0 0 0 0 0 0 0 0 0 0 0 0
0 0 0 0 0 0 0 0 0 0 0 0 3 0 0 0 0 0 0 0 0 0 0 0 0 0 0 0 0 0 0 0 0 0 0 0 0 0 0 0 0 0 0
0 0 0 0 0 0 0 0 0 0 0 0 0 0 3 0 0 0 0 0 0 0 0 0 0 0 0 0 0 0 0 0 0 0 0 0 0 0 0 0 0 0 0

GEFSSE_con_cape1000_234.txt.gz
Probability
32 23 52 55 52 45 45 52 39 45 45 45 39 39 39 35 32 35 32 39 45 42 39 42 35 39 39 26 23 26 19 29 32 42 42 55 48 32 19 39 29 23 35
26 26 52 55 48 45 42 42 42 45 45 42 32 32 29 32 35 39 35 35 42 42 42 35 26 32 35 29 23 19 23 19 19 26 19 23 45 35 23 32 32 23 35
26 23 48 52 48 45 42 39 39 42 45 42 39 32 29 32 29 35 35 29 32 39 42 32 26 23 23 26 29 29 19 19 23 16 10 3 10 29 26 32 42 39 35
16 10 16 48 39 39 39 35 35 42 45 45 42 32 32 32 26 32 26 26 29 32 39 29 32 26 23 29 29 23 19 19 6 10 3 3 0 16 26 29 39 35 29
10 10 23 39 35 39 35 39 35 39 39 48 42 35 32 23 23 23 29 23 29 26 26 16 19 19 19 32 32 26 23 19 3 0 0 3 0 16 19 26 23 26 29
10 16 19 39 32 29 35 32 39 39 32 39 35 32 32 29 29 23 32 29 26 29 13 19 16 16 19 26 26 19 26 10 3 0 0 0 3 13 19 16 16 23 26
6 16 16 32 23 23 26 29 29 35 35 32 26 29 29 26 26 32 26 32 26 13 10 10 13 10 16 16 23 16 19 3 0 0 0 0 3 16 16 10 13 13 16
6 10 16 23 23 19 23 26 32 32 29 29 29 32 23 26 23 26 26 29 19 13 13 10 10 10 16 16 23 16 10 3 0 0 0 0 0 16 10 13 16 16 16
6 6 10 16 16 13 13 19 23 26 26 26 26 26 26 23 32 32 32 26 23 13 10 10 10 10 16 13 16 10 3 0 0 0 0 0 0 3 13 10 13 19 23
10 10 6 6 6 10 10 10 13 16 19 19 19 19 16 19 23 23 29 29 26 23 13 13 16 16 13 10 10 3 0 0 0 0 0 0 0 6 13 13 13 10 16
10 10 10 13 10 6 6 6 10 10 13 10 13 0 0 6 13 6 6 16 19 16 13 13 13 16 10 6 3 0 0 0 0 0 0 0 6 10 13 10 16 10 13
10 10 3 6 6 10 10 6 6 3 3 0 3 3 0 0 6 3 0 0 3 3 3 6 6 6 3 0 0 0 0 0 0 0 0 0 10 16 10 10 13 13 13
3 6 3 6 6 3 3 6 3 3 3 0 0 3 0 0 0 0 0 0 0 0 0 0 0 0 0 0 0 0 0 0 0 0 0 0 13 10 6 10 6 6 13
3 3 3 6 6 3 0 0 3 6 3 3 3 0 3 0 0 0 0 0 0 0 0 0 0 0 0 0 0 0 0 0 0 0 0 0 6 13 6 6 6 6 6
0 0 0 6 3 0 0 0 0 3 3 3 3 3 0 0 0 0 0 0 0 0 0 0 0 0 0 0 0 0 0 0 0 0 0 0 0 10 10 10 10 10 6
0 0 0 3 0 0 0 0 0 0 0 3 3 3 0 0 0 0 0 0 0 0 0 0 0 0 0 0 0 0 0 0 0 0 0 0 0 3 10 10 10 10 6
0 0 0 0 0 0 0 0 0 0 0 3 3 0 0 0 0 0 0 0 0 0 0 0 0 0 0 0 0 0 0 0 0 0 0 0 0 0 0 3 10 6 10
0 0 0 0 0 0 0 0 0 0 0 0 3 3 0 0 0 0 0 0 0 0 0 0 0 0 0 0 0 0 0 0 0 0 0 0 0 0 0 0 6 6 10
0 0 0 0 0 0 0 0 0 0 0 0 0 0 0 0 0 0 0 0 0 0 0 0 0 0 0 0 0 0 0 0 0 0 0 0 0 0 0 0 0 3 3
0 0 0 0 0 0 0 0 0 0 0 0 0 0 0 0 0 0 0 0 0 0 0 0 0 0 0 0 0 0 0 0 0 0 0 0 0 0 0 0 0 0 0
0 0 0 0 0 0 0 0 0 0 0 0 0 0 0 0 0 0 0 0 0 0 0 0 0 0 0 0 0 0 0 0 0 0 0 0 0 0 0 0 0 0 0
0 0 0 0 0 0 0 0 0 0 0 0 0 0 0 0 0 0 0 0 0 0 0 0 0 0 0 0 0 0 0 0 0 0 0 0 0 0 0 0 0 0 0
0 0 0 0 0 0 0 0 0 0 0 0 0 0 0 0 0 0 0 0 0 0 0 0 0 0 0 0 0 0 0 0 0 0 0 0 0 0 0 0 0 0 0
0 0 0 0 0 0 0 0 0 0 0 0 0 0 0 0 0 0 0 0 0 0 0 0 0 0 0 0 0 0 0 0 0 0 0 0 0 0 0 0 0 0 0
0 0 0 0 0 0 0 0 0 0 0 0 0 0 0 0 0 0 0 0 0 0 0 0 0 0 0 0 0 0 0 0 0 0 0 0 0 0 0 0 0 0 0
0 0 0 0 0 0 0 0 0 0 0 0 0 0 0 0 0 0 0 0 0 0 0 0 0 0 0 0 0 0 0 0 0 0 0 0 0 0 0 0 0 0 0

GEFSSE_con_cape1000_240.txt.gz
Probability
3 29 58 45 48 48 52 52 48 42 42 42 35 42 45 48 48 42 42 39 45 45 45 35 29 42 39 32 35 29 32 42 42 39 42 52 48 35 26 32 35 19 32
10 35 58 48 45 48 48 48 52 52 48 42 39 39 32 39 39 35 39 32 39 39 39 32 32 23 23 19 26 26 23 29 32 29 13 16 42 32 16 35 35 23 29
13 39 52 55 45 45 48 48 48 45 45 48 42 32 29 26 35 35 42 42 42 35 32 35 32 26 19 23 23 23 26 19 16 6 3 3 6 35 23 26 29 35 29
19 42 42 55 48 45 45 45 45 39 39 39 39 32 32 29 29 39 35 39 39 35 32 26 19 23 23 19 19 19 19 19 10 3 3 3 3 19 16 16 16 29 23
6 23 35 48 45 45 42 35 35 35 35 35 35 35 35 26 23 32 35 32 35 32 29 23 19 19 23 16 16 13 19 13 6 3 0 0 0 16 13 16 23 19 23
10 16 32 45 42 39 39 32 35 35 35 35 35 32 29 26 29 29 32 29 32 29 23 23 19 19 13 16 19 16 13 10 3 0 0 0 0 16 16 23 19 19 23
6 13 29 42 35 35 39 35 39 39 32 35 32 29 26 29 26 29 29 26 29 23 23 23 16 16 10 13 10 16 13 3 0 0 0 0 0 6 10 16 16 19 23
6 10 16 32 32 35 35 35 35 35 39 32 26 19 19 26 29 29 29 26 29 23 26 16 13 10 13 10 13 10 13 3 0 0 0 0 0 10 13 13 16 16 19
3 3 10 19 19 19 23 29 29 35 35 29 26 23 26 26 29 29 26 29 23 16 19 16 16 13 13 10 10 6 0 3 0 0 0 0 6 16 13 13 16 13 16
3 3 3 6 6 10 6 13 19 19 19 19 16 16 16 16 26 26 23 23 19 13 13 16 19 16 13 10 6 0 0 0 0 0 0 0 6 16 16 16 16 13 13
3 6 3 6 3 3 3 3 3 6 10 10 3 3 3 3 3 6 6 13 16 19 13 13 19 23 6 3 3 0 0 0 0 0 0 0 10 13 13 16 16 13 10
0 0 0 3 3 3 3 3 3 3 3 3 3 0 0 0 0 3 3 3 6 6 10 13 16 13 0 0 0 0 0 0 0 0 0 0 3 13 10 13 13 16 10
0 0 0 0 3 3 3 3 3 0 0 0 0 0 0 0 0 0 0 0 0 0 0 0 3 0 0 0 0 0 0 0 0 0 0 0 6 10 13 10 13 16 10
0 0 0 0 0 0 0 3 0 0 0 0 0 0 0 0 0 0 0 0 0 0 0 0 0 0 0 0 0 0 0 0 0 0 0 0 0 10 13 13 13 13 10
3 3 0 0 0 0 0 0 0 0 0 0 0 0 0 0 0 0 0 0 0 0 0 0 0 0 0 0 0 0 0 0 0 0 0 0 0 3 13 13 13 6 6
3 3 3 3 0 0 0 0 0 0 0 0 0 0 0 0 0 0 0 0 0 0 0 0 0 0 0 0 0 0 0 0 0 0 0 0 0 0 10 16 10 3 6
0 0 3 3 3 0 0 0 0 0 0 0 0 0 0 0 0 0 0 0 0 0 0 0 0 0 0 0 0 0 0 0 0 0 0 0 0 0 0 13 16 10 6
0 0 3 3 3 0 0 0 0 0 0 0 0 0 0 0 0 0 0 0 0 0 0 0 0 0 0 0 0 0 0 0 0 0 0 0 0 0 0 0 3 3 3
0 0 0 3 0 0 0 0 0 0 0 0 0 0 0 0 0 0 0 0 0 0 0 0 0 0 0 0 0 0 0 0 0 0 0 0 0 0 0 0 0 0 3
0 0 0 0 0 0 0 0 0 0 0 0 0 0 0 0 0 0 0 0 0 0 0 0 0 0 0 0 0 0 0 0 0 0 0 0 0 0 0 0 0 0 0
0 0 0 0 0 0 0 0 0 0 0 0 0 0 0 0 0 0 0 0 0 0 0 0 0 0 0 0 0 0 0 0 0 0 0 0 0 0 0 0 0 0 0
0 0 0 0 0 0 0 0 0 0 0 0 0 0 0 0 0 0 0 0 0 0 0 0 0 0 0 0 0 0 0 0 0 0 0 0 0 0 0 0 0 0 0
0 0 0 0 0 0 0 0 0 0 0 0 0 0 0 0 0 0 0 0 0 0 0 0 0 0 0 0 0 0 0 0 0 0 0 0 0 0 0 0 0 0 0
0 0 0 0 0 0 0 0 0 0 0 0 0 0 0 0 0 0 0 0 0 0 0 0 0 0 0 0 0 0 0 0 0 0 0 0 0 0 0 0 0 0 0
0 0 0 0 0 0 0 0 0 0 0 0 0 0 0 0 0 0 0 0 0 0 0 0 0 0 0 0 0 0 0 0 0 0 0 0 0 0 0 0 0 0 0
0 0 0 0 0 0 0 0 0 0 0 0 0 0 0 0 0 0 0 0 0 0 0 0 0 0 0 0 0 0 0 0 0 0 0 0 0 0 0 0 0 0 0